Observation data for Tahoka on 09/09/2017      Previous  Date  Next       Current Mesonet Observations  Soil Data  Daily Summary Page  Observations in Plain Language
KTAS 090500Z 11008KT 18/07 A3017 RMK A01 T01820070  RH  048%=      5-min Rain = 0
KTAS 090501Z 12007KT 18/07 A3017 RMK A01 T01820069  RH  048%=      5-min Rain = 0
KTAS 090502Z 11008KT 18/07 A3017 RMK A01 T01820069  RH  048%=      5-min Rain = 0
KTAS 090503Z 12007KT 18/07 A3017 RMK A01 T01820069  RH  048%=      5-min Rain = 0
KTAS 090504Z 11007KT 18/07 A3017 RMK A01 T01820069  RH  048%=      5-min Rain = 0
KTAS 090505Z 11008KT 18/07 A3017 RMK A01 T01820070  RH  048%=      5-min Rain = 0
KTAS 090506Z 11008KT 18/07 A3017 RMK A01 T01810070  RH  048%=      5-min Rain = 0
KTAS 090507Z 11007KT 18/07 A3017 RMK A01 T01800070  RH  048%=      5-min Rain = 0
KTAS 090508Z 12007KT 18/07 A3017 RMK A01 T01800070  RH  048%=      5-min Rain = 0
KTAS 090509Z 11008KT 18/07 A3017 RMK A01 T01800070  RH  048%=      5-min Rain = 0
KTAS 090510Z 11008KT 18/07 A3017 RMK A01 T01810070  RH  048%=      5-min Rain = 0
KTAS 090511Z 12008KT 18/07 A3018 RMK A01 T01810070  RH  048%=      5-min Rain = 0
KTAS 090512Z 11008KT 18/07 A3018 RMK A01 T01810070  RH  048%=      5-min Rain = 0
KTAS 090513Z 12007KT 18/07 A3018 RMK A01 T01810069  RH  048%=      5-min Rain = 0
KTAS 090514Z 12007KT 18/07 A3018 RMK A01 T01810069  RH  048%=      5-min Rain = 0
KTAS 090515Z 12008KT 18/07 A3018 RMK A01 T01810069  RH  048%=      5-min Rain = 0
KTAS 090516Z 12007KT 18/07 A3018 RMK A01 T01810069  RH  048%=      5-min Rain = 0
KTAS 090517Z 12008KT 18/07 A3018 RMK A01 T01810069  RH  048%=      5-min Rain = 0
KTAS 090518Z 12007KT 18/07 A3018 RMK A01 T01800069  RH  048%=      5-min Rain = 0
KTAS 090519Z 12007KT 18/07 A3018 RMK A01 T01790069  RH  048%=      5-min Rain = 0
KTAS 090520Z 12008KT 18/07 A3018 RMK A01 T01790069  RH  049%=      5-min Rain = 0
KTAS 090521Z 12007KT 18/07 A3018 RMK A01 T01780069  RH  049%=      5-min Rain = 0
KTAS 090522Z 12008KT 18/07 A3018 RMK A01 T01780069  RH  049%=      5-min Rain = 0
KTAS 090523Z 12008KT 18/07 A3018 RMK A01 T01770069  RH  049%=      5-min Rain = 0
KTAS 090524Z 12008KT 18/07 A3018 RMK A01 T01780069  RH  049%=      5-min Rain = 0
KTAS 090525Z 12008KT 18/07 A3018 RMK A01 T01780069  RH  049%=      5-min Rain = 0
KTAS 090526Z 12008KT 18/07 A3018 RMK A01 T01780069  RH  049%=      5-min Rain = 0
KTAS 090527Z 13007KT 18/07 A3018 RMK A01 T01780069  RH  049%=      5-min Rain = 0
KTAS 090528Z 12008KT 18/07 A3018 RMK A01 T01770069  RH  049%=      5-min Rain = 0
KTAS 090529Z 13007KT 18/07 A3018 RMK A01 T01770069  RH  049%=      5-min Rain = 0
KTAS 090530Z 12007KT 18/07 A3018 RMK A01 T01770069  RH  049%=      5-min Rain = 0
KTAS 090531Z 12007KT 18/07 A3018 RMK A01 T01760069  RH  049%=      5-min Rain = 0
KTAS 090532Z 12007KT 18/07 A3018 RMK A01 T01760069  RH  050%=      5-min Rain = 0
KTAS 090533Z 13007KT 18/07 A3018 RMK A01 T01750069  RH  050%=      5-min Rain = 0
KTAS 090534Z 13007KT 17/07 A3018 RMK A01 T01740069  RH  050%=      5-min Rain = 0
KTAS 090535Z 13006KT 17/07 A3018 RMK A01 T01740069  RH  050%=      5-min Rain = 0
KTAS 090536Z 12007KT 17/07 A3018 RMK A01 T01730069  RH  050%=      5-min Rain = 0
KTAS 090537Z 12007KT 17/07 A3018 RMK A01 T01730069  RH  051%=      5-min Rain = 0
KTAS 090538Z 13007KT 17/07 A3018 RMK A01 T01720069  RH  051%=      5-min Rain = 0
KTAS 090539Z 12007KT 17/07 A3018 RMK A01 T01720069  RH  051%=      5-min Rain = 0
KTAS 090540Z 13007KT 17/07 A3018 RMK A01 T01720069  RH  051%=      5-min Rain = 0
KTAS 090541Z 13007KT 17/07 A3018 RMK A01 T01720069  RH  051%=      5-min Rain = 0
KTAS 090542Z 13007KT 17/07 A3018 RMK A01 T01720069  RH  051%=      5-min Rain = 0
KTAS 090543Z 13007KT 17/07 A3018 RMK A01 T01720070  RH  051%=      5-min Rain = 0
KTAS 090544Z 13007KT 17/07 A3018 RMK A01 T01720070  RH  051%=      5-min Rain = 0
KTAS 090545Z 13007KT 17/07 A3018 RMK A01 T01720070  RH  051%=      5-min Rain = 0
KTAS 090546Z 13007KT 17/07 A3018 RMK A01 T01720070  RH  051%=      5-min Rain = 0
KTAS 090547Z 13007KT 17/07 A3018 RMK A01 T01730070  RH  051%=      5-min Rain = 0
KTAS 090548Z 13007KT 17/07 A3018 RMK A01 T01740070  RH  051%=      5-min Rain = 0
KTAS 090549Z 13007KT 17/07 A3018 RMK A01 T01740070  RH  051%=      5-min Rain = 0
KTAS 090550Z 13007KT 17/07 A3018 RMK A01 T01740070  RH  051%=      5-min Rain = 0
KTAS 090551Z 13007KT 18/07 A3018 RMK A01 T01750070  RH  050%=      5-min Rain = 0
KTAS 090552Z 14007KT 18/07 A3018 RMK A01 T01750070  RH  050%=      5-min Rain = 0
KTAS 090553Z 13007KT 18/07 A3018 RMK A01 T01750071  RH  050%=      5-min Rain = 0
KTAS 090554Z 13006KT 17/07 A3018 RMK A01 T01740071  RH  050%=      5-min Rain = 0
KTAS 090555Z 13007KT 17/07 A3018 RMK A01 T01740071  RH  051%=      5-min Rain = 0
KTAS 090556Z 13006KT 17/07 A3018 RMK A01 T01740071  RH  051%=      5-min Rain = 0
KTAS 090557Z 13007KT 17/07 A3018 RMK A01 T01740071  RH  051%=      5-min Rain = 0
KTAS 090558Z 13007KT 17/07 A3018 RMK A01 T01740071  RH  051%=      5-min Rain = 0
KTAS 090559Z 13007KT 17/07 A3018 RMK A01 T01730071  RH  051%=      5-min Rain = 0
KTAS 090600Z 13006KT 17/07 A3018 RMK A01 T01730071  RH  051%=      5-min Rain = 0
KTAS 090601Z 13006KT 17/07 A3018 RMK A01 T01720070  RH  051%=      5-min Rain = 0
KTAS 090602Z 13006KT 17/07 A3018 RMK A01 T01710070  RH  052%=      5-min Rain = 0
KTAS 090603Z 13006KT 17/07 A3018 RMK A01 T01700070  RH  052%=      5-min Rain = 0
KTAS 090604Z 13006KT 17/07 A3018 RMK A01 T01700070  RH  052%=      5-min Rain = 0
KTAS 090605Z 13006KT 17/07 A3018 RMK A01 T01690070  RH  052%=      5-min Rain = 0
KTAS 090606Z 13006KT 17/07 A3018 RMK A01 T01680070  RH  052%=      5-min Rain = 0
KTAS 090607Z 13006KT 17/07 A3018 RMK A01 T01680070  RH  053%=      5-min Rain = 0
KTAS 090608Z 13006KT 17/07 A3018 RMK A01 T01670070  RH  053%=      5-min Rain = 0
KTAS 090609Z 13006KT 17/07 A3018 RMK A01 T01660070  RH  053%=      5-min Rain = 0
KTAS 090610Z 13006KT 17/07 A3018 RMK A01 T01650070  RH  053%=      5-min Rain = 0
KTAS 090611Z 12006KT 16/07 A3018 RMK A01 T01640070  RH  054%=      5-min Rain = 0
KTAS 090612Z 13006KT 16/07 A3018 RMK A01 T01640070  RH  054%=      5-min Rain = 0
KTAS 090613Z 13006KT 16/07 A3018 RMK A01 T01630070  RH  054%=      5-min Rain = 0
KTAS 090614Z 13006KT 16/07 A3018 RMK A01 T01630070  RH  054%=      5-min Rain = 0
KTAS 090615Z 13006KT 16/07 A3018 RMK A01 T01620070  RH  054%=      5-min Rain = 0
KTAS 090616Z 13006KT 16/07 A3018 RMK A01 T01620070  RH  054%=      5-min Rain = 0
KTAS 090617Z 13006KT 16/07 A3018 RMK A01 T01610070  RH  055%=      5-min Rain = 0
KTAS 090618Z 13006KT 16/07 A3018 RMK A01 T01610070  RH  055%=      5-min Rain = 0
KTAS 090619Z 13006KT 16/07 A3018 RMK A01 T01600070  RH  055%=      5-min Rain = 0
KTAS 090620Z 13006KT 16/07 A3018 RMK A01 T01590070  RH  055%=      5-min Rain = 0
KTAS 090621Z 13006KT 16/07 A3018 RMK A01 T01590070  RH  055%=      5-min Rain = 0
KTAS 090622Z 13006KT 16/07 A3018 RMK A01 T01580070  RH  055%=      5-min Rain = 0
KTAS 090623Z 13006KT 16/07 A3018 RMK A01 T01580070  RH  056%=      5-min Rain = 0
KTAS 090624Z 13006KT 16/07 A3018 RMK A01 T01580070  RH  056%=      5-min Rain = 0
KTAS 090625Z 13006KT 16/07 A3018 RMK A01 T01580070  RH  056%=      5-min Rain = 0
KTAS 090626Z 13006KT 16/07 A3018 RMK A01 T01580070  RH  056%=      5-min Rain = 0
KTAS 090627Z 13006KT 16/07 A3018 RMK A01 T01580070  RH  056%=      5-min Rain = 0
KTAS 090628Z 13006KT 16/07 A3018 RMK A01 T01570070  RH  056%=      5-min Rain = 0
KTAS 090629Z 13006KT 16/07 A3018 RMK A01 T01570070  RH  056%=      5-min Rain = 0
KTAS 090630Z 13006KT 16/07 A3018 RMK A01 T01570070  RH  056%=      5-min Rain = 0
KTAS 090631Z 13006KT 16/07 A3018 RMK A01 T01570070  RH  056%=      5-min Rain = 0
KTAS 090632Z 13006KT 16/07 A3018 RMK A01 T01570070  RH  056%=      5-min Rain = 0
KTAS 090633Z 13006KT 16/07 A3018 RMK A01 T01560070  RH  056%=      5-min Rain = 0
KTAS 090634Z 13006KT 16/07 A3018 RMK A01 T01560070  RH  056%=      5-min Rain = 0
KTAS 090635Z 13006KT 16/07 A3018 RMK A01 T01560070  RH  057%=      5-min Rain = 0
KTAS 090636Z 13006KT 16/07 A3018 RMK A01 T01550070  RH  057%=      5-min Rain = 0
KTAS 090637Z 13006KT 15/07 A3018 RMK A01 T01540070  RH  057%=      5-min Rain = 0
KTAS 090638Z 13006KT 15/07 A3018 RMK A01 T01540070  RH  057%=      5-min Rain = 0
KTAS 090639Z 13006KT 15/07 A3018 RMK A01 T01530070  RH  057%=      5-min Rain = 0
KTAS 090640Z 13006KT 15/07 A3018 RMK A01 T01530070  RH  058%=      5-min Rain = 0
KTAS 090641Z 13005KT 15/07 A3018 RMK A01 T01530070  RH  058%=      5-min Rain = 0
KTAS 090642Z 13006KT 15/07 A3018 RMK A01 T01530070  RH  058%=      5-min Rain = 0
KTAS 090643Z 13006KT 15/07 A3018 RMK A01 T01530070  RH  058%=      5-min Rain = 0
KTAS 090644Z 13006KT 15/07 A3018 RMK A01 T01530070  RH  058%=      5-min Rain = 0
KTAS 090645Z 13006KT 15/07 A3018 RMK A01 T01520070  RH  058%=      5-min Rain = 0
KTAS 090646Z 14006KT 15/07 A3018 RMK A01 T01520070  RH  058%=      5-min Rain = 0
KTAS 090647Z 13006KT 15/07 A3018 RMK A01 T01520070  RH  058%=      5-min Rain = 0
KTAS 090648Z 14006KT 15/07 A3018 RMK A01 T01510070  RH  058%=      5-min Rain = 0
KTAS 090649Z 13006KT 15/07 A3018 RMK A01 T01510070  RH  058%=      5-min Rain = 0
KTAS 090650Z 13006KT 15/07 A3018 RMK A01 T01500070  RH  058%=      5-min Rain = 0
KTAS 090651Z 13006KT 15/07 A3018 RMK A01 T01500070  RH  059%=      5-min Rain = 0
KTAS 090652Z 13006KT 15/07 A3018 RMK A01 T01500070  RH  059%=      5-min Rain = 0
KTAS 090653Z 13006KT 15/07 A3018 RMK A01 T01500070  RH  059%=      5-min Rain = 0
KTAS 090654Z 13006KT 15/07 A3018 RMK A01 T01500070  RH  058%=      5-min Rain = 0
KTAS 090655Z 13006KT 15/07 A3018 RMK A01 T01500069  RH  058%=      5-min Rain = 0
KTAS 090656Z 13006KT 15/07 A3018 RMK A01 T01500069  RH  059%=      5-min Rain = 0
KTAS 090657Z 13006KT 15/07 A3018 RMK A01 T01490069  RH  059%=      5-min Rain = 0
KTAS 090658Z 13006KT 15/07 A3018 RMK A01 T01490069  RH  059%=      5-min Rain = 0
KTAS 090659Z 13006KT 15/07 A3018 RMK A01 T01480069  RH  059%=      5-min Rain = 0
KTAS 090700Z 13006KT 15/07 A3018 RMK A01 T01480069  RH  059%=      5-min Rain = 0
KTAS 090701Z 13006KT 15/07 A3018 RMK A01 T01480069  RH  059%=      5-min Rain = 0
KTAS 090702Z 13006KT 15/07 A3018 RMK A01 T01480069  RH  059%=      5-min Rain = 0
KTAS 090703Z 13006KT 15/07 A3018 RMK A01 T01480069  RH  059%=      5-min Rain = 0
KTAS 090704Z 13006KT 15/07 A3018 RMK A01 T01480069  RH  059%=      5-min Rain = 0
KTAS 090705Z 13006KT 15/07 A3019 RMK A01 T01480069  RH  059%=      5-min Rain = 0
KTAS 090706Z 13006KT 15/07 A3019 RMK A01 T01480069  RH  059%=      5-min Rain = 0
KTAS 090707Z 13006KT 15/07 A3019 RMK A01 T01480069  RH  059%=      5-min Rain = 0
KTAS 090708Z 13006KT 15/07 A3019 RMK A01 T01480069  RH  059%=      5-min Rain = 0
KTAS 090709Z 13006KT 15/07 A3019 RMK A01 T01480069  RH  059%=      5-min Rain = 0
KTAS 090710Z 13006KT 15/07 A3019 RMK A01 T01480069  RH  059%=      5-min Rain = 0
KTAS 090711Z 13006KT 15/07 A3019 RMK A01 T01480070  RH  059%=      5-min Rain = 0
KTAS 090712Z 13006KT 15/07 A3018 RMK A01 T01480069  RH  059%=      5-min Rain = 0
KTAS 090713Z 13006KT 15/07 A3019 RMK A01 T01480069  RH  059%=      5-min Rain = 0
KTAS 090714Z 13006KT 15/07 A3019 RMK A01 T01470069  RH  060%=      5-min Rain = 0
KTAS 090715Z 13006KT 15/07 A3019 RMK A01 T01470069  RH  060%=      5-min Rain = 0
KTAS 090716Z 13006KT 15/07 A3019 RMK A01 T01460069  RH  060%=      5-min Rain = 0
KTAS 090717Z 12006KT 15/07 A3019 RMK A01 T01460070  RH  060%=      5-min Rain = 0
KTAS 090718Z 12006KT 15/07 A3019 RMK A01 T01460070  RH  060%=      5-min Rain = 0
KTAS 090719Z 12006KT 15/07 A3019 RMK A01 T01450070  RH  060%=      5-min Rain = 0
KTAS 090720Z 12006KT 15/07 A3019 RMK A01 T01450070  RH  061%=      5-min Rain = 0
KTAS 090721Z 12006KT 15/07 A3019 RMK A01 T01450070  RH  061%=      5-min Rain = 0
KTAS 090722Z 12006KT 15/07 A3019 RMK A01 T01450070  RH  061%=      5-min Rain = 0
KTAS 090723Z 12005KT 15/07 A3019 RMK A01 T01450070  RH  061%=      5-min Rain = 0
KTAS 090724Z 12005KT 15/07 A3019 RMK A01 T01450070  RH  061%=      5-min Rain = 0
KTAS 090725Z 12005KT 14/07 A3019 RMK A01 T01440070  RH  061%=      5-min Rain = 0
KTAS 090726Z 12005KT 14/07 A3019 RMK A01 T01440070  RH  061%=      5-min Rain = 0
KTAS 090727Z 12005KT 14/07 A3019 RMK A01 T01440070  RH  061%=      5-min Rain = 0
KTAS 090728Z 12005KT 14/07 A3019 RMK A01 T01430070  RH  061%=      5-min Rain = 0
KTAS 090729Z 12006KT 14/07 A3019 RMK A01 T01430070  RH  061%=      5-min Rain = 0
KTAS 090730Z 12005KT 14/07 A3019 RMK A01 T01430070  RH  061%=      5-min Rain = 0
KTAS 090731Z 12006KT 14/07 A3019 RMK A01 T01430070  RH  061%=      5-min Rain = 0
KTAS 090732Z 12006KT 14/07 A3019 RMK A01 T01430069  RH  061%=      5-min Rain = 0
KTAS 090733Z 12006KT 14/07 A3019 RMK A01 T01430069  RH  061%=      5-min Rain = 0
KTAS 090734Z 12006KT 14/07 A3019 RMK A01 T01430069  RH  061%=      5-min Rain = 0
KTAS 090735Z 12006KT 14/07 A3019 RMK A01 T01420069  RH  061%=      5-min Rain = 0
KTAS 090736Z 12006KT 14/07 A3019 RMK A01 T01420069  RH  061%=      5-min Rain = 0
KTAS 090737Z 12006KT 14/07 A3019 RMK A01 T01420069  RH  061%=      5-min Rain = 0
KTAS 090738Z 12006KT 14/07 A3019 RMK A01 T01420069  RH  061%=      5-min Rain = 0
KTAS 090739Z 12006KT 14/07 A3019 RMK A01 T01420069  RH  061%=      5-min Rain = 0
KTAS 090740Z 12006KT 14/07 A3019 RMK A01 T01420069  RH  062%=      5-min Rain = 0
KTAS 090741Z 12006KT 14/07 A3019 RMK A01 T01420069  RH  062%=      5-min Rain = 0
KTAS 090742Z 12006KT 14/07 A3019 RMK A01 T01420069  RH  061%=      5-min Rain = 0
KTAS 090743Z 12006KT 14/07 A3019 RMK A01 T01420069  RH  062%=      5-min Rain = 0
KTAS 090744Z 12006KT 14/07 A3019 RMK A01 T01420069  RH  062%=      5-min Rain = 0
KTAS 090745Z 12006KT 14/07 A3019 RMK A01 T01420069  RH  062%=      5-min Rain = 0
KTAS 090746Z 12006KT 14/07 A3019 RMK A01 T01420069  RH  062%=      5-min Rain = 0
KTAS 090747Z 12006KT 14/07 A3019 RMK A01 T01420069  RH  062%=      5-min Rain = 0
KTAS 090748Z 12006KT 14/07 A3019 RMK A01 T01420069  RH  062%=      5-min Rain = 0
KTAS 090749Z 12006KT 14/07 A3019 RMK A01 T01410069  RH  062%=      5-min Rain = 0
KTAS 090750Z 12006KT 14/07 A3019 RMK A01 T01410069  RH  062%=      5-min Rain = 0
KTAS 090751Z 12006KT 14/07 A3019 RMK A01 T01410069  RH  062%=      5-min Rain = 0
KTAS 090752Z 11006KT 14/07 A3018 RMK A01 T01400069  RH  062%=      5-min Rain = 0
KTAS 090753Z 11006KT 14/07 A3019 RMK A01 T01400069  RH  062%=      5-min Rain = 0
KTAS 090754Z 11006KT 14/07 A3019 RMK A01 T01390069  RH  063%=      5-min Rain = 0
KTAS 090755Z 11006KT 14/07 A3019 RMK A01 T01390069  RH  063%=      5-min Rain = 0
KTAS 090756Z 11005KT 14/07 A3019 RMK A01 T01390069  RH  063%=      5-min Rain = 0
KTAS 090757Z 11005KT 14/07 A3019 RMK A01 T01390069  RH  063%=      5-min Rain = 0
KTAS 090758Z 11005KT 14/07 A3019 RMK A01 T01390069  RH  063%=      5-min Rain = 0
KTAS 090759Z 11005KT 14/07 A3019 RMK A01 T01380069  RH  063%=      5-min Rain = 0
KTAS 090800Z 11005KT 14/07 A3019 RMK A01 T01380069  RH  063%=      5-min Rain = 0
KTAS 090801Z 10005KT 14/07 A3019 RMK A01 T01380069  RH  063%=      5-min Rain = 0
KTAS 090802Z 10005KT 14/07 A3019 RMK A01 T01380069  RH  063%=      5-min Rain = 0
KTAS 090803Z 10005KT 14/07 A3019 RMK A01 T01390069  RH  063%=      5-min Rain = 0
KTAS 090804Z 10005KT 14/07 A3019 RMK A01 T01390069  RH  063%=      5-min Rain = 0
KTAS 090805Z 10005KT 14/07 A3019 RMK A01 T01380069  RH  063%=      5-min Rain = 0
KTAS 090806Z 10005KT 14/07 A3019 RMK A01 T01380069  RH  063%=      5-min Rain = 0
KTAS 090807Z 10005KT 14/07 A3019 RMK A01 T01380069  RH  063%=      5-min Rain = 0
KTAS 090808Z 10005KT 14/07 A3019 RMK A01 T01380069  RH  063%=      5-min Rain = 0
KTAS 090809Z 10005KT 14/07 A3019 RMK A01 T01370069  RH  063%=      5-min Rain = 0
KTAS 090810Z 10005KT 14/07 A3019 RMK A01 T01370069  RH  063%=      5-min Rain = 0
KTAS 090811Z 11005KT 14/07 A3019 RMK A01 T01370069  RH  063%=      5-min Rain = 0
KTAS 090812Z 11006KT 14/07 A3019 RMK A01 T01370069  RH  063%=      5-min Rain = 0
KTAS 090813Z 11006KT 14/07 A3019 RMK A01 T01370069  RH  063%=      5-min Rain = 0
KTAS 090814Z 11006KT 14/07 A3019 RMK A01 T01370069  RH  063%=      5-min Rain = 0
KTAS 090815Z 11006KT 14/07 A3019 RMK A01 T01380069  RH  063%=      5-min Rain = 0
KTAS 090816Z 11006KT 14/07 A3019 RMK A01 T01380069  RH  063%=      5-min Rain = 0
KTAS 090817Z 11006KT 14/07 A3019 RMK A01 T01380070  RH  063%=      5-min Rain = 0
KTAS 090818Z 11006KT 14/07 A3019 RMK A01 T01380070  RH  063%=      5-min Rain = 0
KTAS 090819Z 11006KT 14/07 A3019 RMK A01 T01380070  RH  064%=      5-min Rain = 0
KTAS 090820Z 11006KT 14/07 A3019 RMK A01 T01380070  RH  064%=      5-min Rain = 0
KTAS 090821Z 11005KT 14/07 A3019 RMK A01 T01380070  RH  064%=      5-min Rain = 0
KTAS 090822Z 11005KT 14/07 A3019 RMK A01 T01370070  RH  064%=      5-min Rain = 0
KTAS 090823Z 10005KT 14/07 A3019 RMK A01 T01370070  RH  064%=      5-min Rain = 0
KTAS 090824Z 10005KT 14/07 A3019 RMK A01 T01370070  RH  064%=      5-min Rain = 0
KTAS 090825Z 10004KT 14/07 A3019 RMK A01 T01370070  RH  064%=      5-min Rain = 0
KTAS 090826Z 10004KT 14/07 A3019 RMK A01 T01370070  RH  064%=      5-min Rain = 0
KTAS 090827Z 10004KT 14/07 A3019 RMK A01 T01370070  RH  064%=      5-min Rain = 0
KTAS 090828Z 10004KT 14/07 A3019 RMK A01 T01370070  RH  064%=      5-min Rain = 0
KTAS 090829Z 10004KT 14/07 A3019 RMK A01 T01370070  RH  064%=      5-min Rain = 0
KTAS 090830Z 10004KT 14/07 A3019 RMK A01 T01370070  RH  064%=      5-min Rain = 0
KTAS 090831Z 10004KT 14/07 A3019 RMK A01 T01370070  RH  064%=      5-min Rain = 0
KTAS 090832Z 09004KT 14/07 A3019 RMK A01 T01370070  RH  064%=      5-min Rain = 0
KTAS 090833Z 09003KT 14/07 A3019 RMK A01 T01370070  RH  064%=      5-min Rain = 0
KTAS 090834Z 09003KT 14/07 A3019 RMK A01 T01360070  RH  065%=      5-min Rain = 0
KTAS 090835Z 09004KT 14/07 A3019 RMK A01 T01350071  RH  065%=      5-min Rain = 0
KTAS 090836Z 10004KT 14/07 A3019 RMK A01 T01350071  RH  065%=      5-min Rain = 0
KTAS 090837Z 10004KT 14/07 A3019 RMK A01 T01350071  RH  065%=      5-min Rain = 0
KTAS 090838Z 10004KT 14/07 A3019 RMK A01 T01350071  RH  065%=      5-min Rain = 0
KTAS 090839Z 09004KT 14/07 A3019 RMK A01 T01350071  RH  065%=      5-min Rain = 0
KTAS 090840Z 09004KT 14/07 A3019 RMK A01 T01360071  RH  065%=      5-min Rain = 0
KTAS 090841Z 09005KT 14/07 A3019 RMK A01 T01360071  RH  065%=      5-min Rain = 0
KTAS 090842Z 09005KT 14/07 A3019 RMK A01 T01360071  RH  065%=      5-min Rain = 0
KTAS 090843Z 09005KT 14/07 A3019 RMK A01 T01360071  RH  065%=      5-min Rain = 0
KTAS 090844Z 09005KT 14/07 A3019 RMK A01 T01360071  RH  065%=      5-min Rain = 0
KTAS 090845Z 08005KT 14/07 A3019 RMK A01 T01360070  RH  065%=      5-min Rain = 0
KTAS 090846Z 08005KT 14/07 A3019 RMK A01 T01350070  RH  065%=      5-min Rain = 0
KTAS 090847Z 08005KT 13/07 A3019 RMK A01 T01340070  RH  065%=      5-min Rain = 0
KTAS 090848Z 08005KT 13/07 A3019 RMK A01 T01340070  RH  065%=      5-min Rain = 0
KTAS 090849Z 08005KT 13/07 A3019 RMK A01 T01340070  RH  065%=      5-min Rain = 0
KTAS 090850Z 09005KT 13/07 A3019 RMK A01 T01330070  RH  065%=      5-min Rain = 0
KTAS 090851Z 09005KT 13/07 A3019 RMK A01 T01330070  RH  066%=      5-min Rain = 0
KTAS 090852Z 09005KT 13/07 A3019 RMK A01 T01320069  RH  066%=      5-min Rain = 0
KTAS 090853Z 10005KT 13/07 A3019 RMK A01 T01310069  RH  066%=      5-min Rain = 0
KTAS 090854Z 09005KT 13/07 A3019 RMK A01 T01310069  RH  066%=      5-min Rain = 0
KTAS 090855Z 09005KT 13/07 A3019 RMK A01 T01310069  RH  066%=      5-min Rain = 0
KTAS 090856Z 09006KT 13/07 A3019 RMK A01 T01300069  RH  066%=      5-min Rain = 0
KTAS 090857Z 09006KT 13/07 A3019 RMK A01 T01300069  RH  066%=      5-min Rain = 0
KTAS 090858Z 09006KT 13/07 A3019 RMK A01 T01290069  RH  067%=      5-min Rain = 0
KTAS 090859Z 09006KT 13/07 A3019 RMK A01 T01290069  RH  067%=      5-min Rain = 0
KTAS 090900Z 09006KT 13/07 A3019 RMK A01 T01290069  RH  067%=      5-min Rain = 0
KTAS 090901Z 09006KT 13/07 A3019 RMK A01 T01290069  RH  067%=      5-min Rain = 0
KTAS 090902Z 09006KT 13/07 A3019 RMK A01 T01290069  RH  067%=      5-min Rain = 0
KTAS 090903Z 09006KT 13/07 A3019 RMK A01 T01280069  RH  067%=      5-min Rain = 0
KTAS 090904Z 08006KT 13/07 A3019 RMK A01 T01280069  RH  068%=      5-min Rain = 0
KTAS 090905Z 09006KT 13/07 A3019 RMK A01 T01270069  RH  068%=      5-min Rain = 0
KTAS 090906Z 09006KT 13/07 A3019 RMK A01 T01270069  RH  068%=      5-min Rain = 0
KTAS 090907Z 09006KT 13/07 A3019 RMK A01 T01260069  RH  068%=      5-min Rain = 0
KTAS 090908Z 09006KT 13/07 A3019 RMK A01 T01260070  RH  069%=      5-min Rain = 0
KTAS 090909Z 08005KT 13/07 A3019 RMK A01 T01260070  RH  069%=      5-min Rain = 0
KTAS 090910Z 08005KT 13/07 A3019 RMK A01 T01260070  RH  069%=      5-min Rain = 0
KTAS 090911Z 08005KT 13/07 A3019 RMK A01 T01260070  RH  069%=      5-min Rain = 0
KTAS 090912Z 08005KT 13/07 A3019 RMK A01 T01250070  RH  069%=      5-min Rain = 0
KTAS 090913Z 08004KT 13/07 A3019 RMK A01 T01250070  RH  069%=      5-min Rain = 0
KTAS 090914Z 08004KT 13/07 A3019 RMK A01 T01250070  RH  069%=      5-min Rain = 0
KTAS 090915Z 08004KT 13/07 A3019 RMK A01 T01250070  RH  069%=      5-min Rain = 0
KTAS 090916Z 08004KT 13/07 A3019 RMK A01 T01250070  RH  069%=      5-min Rain = 0
KTAS 090917Z 07004KT 13/07 A3019 RMK A01 T01250070  RH  069%=      5-min Rain = 0
KTAS 090918Z 07004KT 13/07 A3019 RMK A01 T01250070  RH  069%=      5-min Rain = 0
KTAS 090919Z 07005KT 13/07 A3019 RMK A01 T01250070  RH  069%=      5-min Rain = 0
KTAS 090920Z 08005KT 12/07 A3019 RMK A01 T01240070  RH  070%=      5-min Rain = 0
KTAS 090921Z 08005KT 12/07 A3019 RMK A01 T01240070  RH  070%=      5-min Rain = 0
KTAS 090922Z 08005KT 12/07 A3019 RMK A01 T01230070  RH  070%=      5-min Rain = 0
KTAS 090923Z 08005KT 12/07 A3019 RMK A01 T01240071  RH  070%=      5-min Rain = 0
KTAS 090924Z 08005KT 12/07 A3019 RMK A01 T01240071  RH  070%=      5-min Rain = 0
KTAS 090925Z 09005KT 13/07 A3019 RMK A01 T01250071  RH  070%=      5-min Rain = 0
KTAS 090926Z 09005KT 13/07 A3019 RMK A01 T01250071  RH  069%=      5-min Rain = 0
KTAS 090927Z 09005KT 13/07 A3019 RMK A01 T01250071  RH  069%=      5-min Rain = 0
KTAS 090928Z 09005KT 13/07 A302 RMK A01 T01260071  RH  069%=      5-min Rain = 0
KTAS 090929Z 09005KT 13/07 A302 RMK A01 T01260071  RH  069%=      5-min Rain = 0
KTAS 090930Z 08005KT 13/07 A3019 RMK A01 T01260071  RH  069%=      5-min Rain = 0
KTAS 090931Z 08005KT 13/07 A302 RMK A01 T01260071  RH  069%=      5-min Rain = 0
KTAS 090932Z 08004KT 13/07 A3019 RMK A01 T01270071  RH  069%=      5-min Rain = 0
KTAS 090933Z 08004KT 13/07 A3019 RMK A01 T01270070  RH  069%=      5-min Rain = 0
KTAS 090934Z 08004KT 13/07 A3019 RMK A01 T01260070  RH  069%=      5-min Rain = 0
KTAS 090935Z 07004KT 13/07 A3019 RMK A01 T01260070  RH  069%=      5-min Rain = 0
KTAS 090936Z 06004KT 13/07 A3019 RMK A01 T01250070  RH  069%=      5-min Rain = 0
KTAS 090937Z 06004KT 13/07 A3019 RMK A01 T01250070  RH  069%=      5-min Rain = 0
KTAS 090938Z 06004KT 12/07 A3019 RMK A01 T01240070  RH  069%=      5-min Rain = 0
KTAS 090939Z 05004KT 12/07 A302 RMK A01 T01230069  RH  069%=      5-min Rain = 0
KTAS 090940Z 05004KT 12/07 A302 RMK A01 T01220068  RH  070%=      5-min Rain = 0
KTAS 090941Z 05005KT 12/07 A302 RMK A01 T01220069  RH  070%=      5-min Rain = 0
KTAS 090942Z 05005KT 12/07 A302 RMK A01 T01210069  RH  070%=      5-min Rain = 0
KTAS 090943Z 06005KT 12/07 A302 RMK A01 T01200069  RH  071%=      5-min Rain = 0
KTAS 090944Z 06005KT 12/07 A302 RMK A01 T01210071  RH  071%=      5-min Rain = 0
KTAS 090945Z 07005KT 12/07 A302 RMK A01 T01210071  RH  072%=      5-min Rain = 0
KTAS 090946Z 07005KT 12/07 A302 RMK A01 T01220072  RH  072%=      5-min Rain = 0
KTAS 090947Z 07005KT 12/07 A302 RMK A01 T01220072  RH  071%=      5-min Rain = 0
KTAS 090948Z 07006KT 12/07 A302 RMK A01 T01240073  RH  071%=      5-min Rain = 0
KTAS 090949Z 08006KT 13/07 A302 RMK A01 T01260073  RH  070%=      5-min Rain = 0
KTAS 090950Z 08006KT 13/07 A302 RMK A01 T01270073  RH  070%=      5-min Rain = 0
KTAS 090951Z 08006KT 13/07 A302 RMK A01 T01270073  RH  069%=      5-min Rain = 0
KTAS 090952Z 08006KT 13/07 A302 RMK A01 T01270072  RH  069%=      5-min Rain = 0
KTAS 090953Z 08005KT 13/07 A302 RMK A01 T01260072  RH  070%=      5-min Rain = 0
KTAS 090954Z 09006KT 13/07 A302 RMK A01 T01260072  RH  070%=      5-min Rain = 0
KTAS 090955Z 09006KT 13/07 A302 RMK A01 T01250071  RH  070%=      5-min Rain = 0
KTAS 090956Z 09006KT 12/07 A302 RMK A01 T01240071  RH  070%=      5-min Rain = 0
KTAS 090957Z 09006KT 12/07 A302 RMK A01 T01240071  RH  070%=      5-min Rain = 0
KTAS 090958Z 09005KT 12/07 A302 RMK A01 T01240071  RH  070%=      5-min Rain = 0
KTAS 090959Z 09006KT 12/07 A302 RMK A01 T01230071  RH  070%=      5-min Rain = 0
KTAS 091000Z 08006KT 12/07 A302 RMK A01 T01230071  RH  070%=      5-min Rain = 0
KTAS 091001Z 09006KT 12/07 A302 RMK A01 T01220070  RH  071%=      5-min Rain = 0
KTAS 091002Z 09006KT 12/07 A302 RMK A01 T01220070  RH  071%=      5-min Rain = 0
KTAS 091003Z 09006KT 12/07 A302 RMK A01 T01210070  RH  071%=      5-min Rain = 0
KTAS 091004Z 08006KT 12/07 A302 RMK A01 T01210070  RH  071%=      5-min Rain = 0
KTAS 091005Z 08006KT 12/07 A302 RMK A01 T01200070  RH  071%=      5-min Rain = 0
KTAS 091006Z 08006KT 12/07 A302 RMK A01 T01200070  RH  071%=      5-min Rain = 0
KTAS 091007Z 08006KT 12/07 A302 RMK A01 T01200070  RH  071%=      5-min Rain = 0
KTAS 091008Z 08006KT 12/07 A302 RMK A01 T01200070  RH  072%=      5-min Rain = 0
KTAS 091009Z 08006KT 12/07 A302 RMK A01 T01200070  RH  072%=      5-min Rain = 0
KTAS 091010Z 08006KT 12/07 A302 RMK A01 T01190070  RH  072%=      5-min Rain = 0
KTAS 091011Z 08006KT 12/07 A302 RMK A01 T01190071  RH  072%=      5-min Rain = 0
KTAS 091012Z 09006KT 12/07 A302 RMK A01 T01190071  RH  072%=      5-min Rain = 0
KTAS 091013Z 09006KT 12/07 A302 RMK A01 T01190071  RH  072%=      5-min Rain = 0
KTAS 091014Z 09006KT 12/07 A302 RMK A01 T01190071  RH  072%=      5-min Rain = 0
KTAS 091015Z 09005KT 12/07 A302 RMK A01 T01190071  RH  072%=      5-min Rain = 0
KTAS 091016Z 10006KT 12/07 A302 RMK A01 T01190071  RH  073%=      5-min Rain = 0
KTAS 091017Z 09006KT 12/07 A302 RMK A01 T01190071  RH  072%=      5-min Rain = 0
KTAS 091018Z 10006KT 12/07 A302 RMK A01 T01190071  RH  072%=      5-min Rain = 0
KTAS 091019Z 09006KT 12/07 A302 RMK A01 T01190071  RH  072%=      5-min Rain = 0
KTAS 091020Z 09006KT 12/07 A302 RMK A01 T01190071  RH  073%=      5-min Rain = 0
KTAS 091021Z 09005KT 12/07 A302 RMK A01 T01180071  RH  073%=      5-min Rain = 0
KTAS 091022Z 09005KT 12/07 A302 RMK A01 T01180071  RH  073%=      5-min Rain = 0
KTAS 091023Z 09005KT 12/07 A302 RMK A01 T01190071  RH  073%=      5-min Rain = 0
KTAS 091024Z 08005KT 12/07 A302 RMK A01 T01190071  RH  073%=      5-min Rain = 0
KTAS 091025Z 09006KT 12/07 A302 RMK A01 T01190071  RH  072%=      5-min Rain = 0
KTAS 091026Z 09005KT 12/07 A302 RMK A01 T01190071  RH  073%=      5-min Rain = 0
KTAS 091027Z 09005KT 12/07 A302 RMK A01 T01190071  RH  073%=      5-min Rain = 0
KTAS 091028Z 09005KT 12/07 A302 RMK A01 T01190071  RH  073%=      5-min Rain = 0
KTAS 091029Z 09005KT 12/07 A302 RMK A01 T01190071  RH  073%=      5-min Rain = 0
KTAS 091030Z 09005KT 12/07 A302 RMK A01 T01190072  RH  073%=      5-min Rain = 0
KTAS 091031Z 09005KT 12/07 A302 RMK A01 T01190072  RH  073%=      5-min Rain = 0
KTAS 091032Z 09005KT 12/07 A302 RMK A01 T01190072  RH  072%=      5-min Rain = 0
KTAS 091033Z 09005KT 12/07 A302 RMK A01 T01200071  RH  072%=      5-min Rain = 0
KTAS 091034Z 09005KT 12/07 A302 RMK A01 T01200071  RH  072%=      5-min Rain = 0
KTAS 091035Z 09005KT 12/07 A302 RMK A01 T01200071  RH  072%=      5-min Rain = 0
KTAS 091036Z 09005KT 12/07 A302 RMK A01 T01200072  RH  072%=      5-min Rain = 0
KTAS 091037Z 09004KT 12/07 A302 RMK A01 T01200071  RH  072%=      5-min Rain = 0
KTAS 091038Z 09004KT 12/07 A302 RMK A01 T01200071  RH  072%=      5-min Rain = 0
KTAS 091039Z 10004KT 12/07 A302 RMK A01 T01200071  RH  072%=      5-min Rain = 0
KTAS 091040Z 09004KT 12/07 A302 RMK A01 T01200071  RH  072%=      5-min Rain = 0
KTAS 091041Z 09004KT 12/07 A302 RMK A01 T01200071  RH  072%=      5-min Rain = 0
KTAS 091042Z 09004KT 12/07 A302 RMK A01 T01200071  RH  072%=      5-min Rain = 0
KTAS 091043Z 09004KT 12/07 A302 RMK A01 T01200071  RH  072%=      5-min Rain = 0
KTAS 091044Z 09004KT 12/07 A302 RMK A01 T01200071  RH  072%=      5-min Rain = 0
KTAS 091045Z 09004KT 12/07 A302 RMK A01 T01200071  RH  072%=      5-min Rain = 0
KTAS 091046Z 09005KT 12/07 A302 RMK A01 T01200071  RH  072%=      5-min Rain = 0
KTAS 091047Z 09005KT 12/07 A302 RMK A01 T01190070  RH  072%=      5-min Rain = 0
KTAS 091048Z 09004KT 12/07 A302 RMK A01 T01180070  RH  072%=      5-min Rain = 0
KTAS 091049Z 09005KT 12/07 A302 RMK A01 T01180070  RH  073%=      5-min Rain = 0
KTAS 091050Z 09005KT 12/07 A302 RMK A01 T01180071  RH  073%=      5-min Rain = 0
KTAS 091051Z 09005KT 12/07 A302 RMK A01 T01180071  RH  073%=      5-min Rain = 0
KTAS 091052Z 10005KT 12/07 A302 RMK A01 T01180071  RH  073%=      5-min Rain = 0
KTAS 091053Z 10005KT 12/07 A302 RMK A01 T01180071  RH  073%=      5-min Rain = 0
KTAS 091054Z 10005KT 12/07 A302 RMK A01 T01180070  RH  072%=      5-min Rain = 0
KTAS 091055Z 10005KT 12/07 A302 RMK A01 T01180070  RH  073%=      5-min Rain = 0
KTAS 091056Z 10005KT 12/07 A302 RMK A01 T01170070  RH  073%=      5-min Rain = 0
KTAS 091057Z 10005KT 12/07 A302 RMK A01 T01170070  RH  073%=      5-min Rain = 0
KTAS 091058Z 11005KT 12/07 A302 RMK A01 T01170070  RH  073%=      5-min Rain = 0
KTAS 091059Z 10005KT 12/07 A302 RMK A01 T01170070  RH  073%=      5-min Rain = 0
KTAS 091100Z 10005KT 12/07 A302 RMK A01 T01160070  RH  073%=      5-min Rain = 0
KTAS 091101Z 10005KT 12/07 A302 RMK A01 T01160070  RH  073%=      5-min Rain = 0
KTAS 091102Z 10005KT 12/07 A302 RMK A01 T01160070  RH  073%=      5-min Rain = 0
KTAS 091103Z 10005KT 12/07 A302 RMK A01 T01160070  RH  073%=      5-min Rain = 0
KTAS 091104Z 10005KT 12/07 A302 RMK A01 T01160070  RH  073%=      5-min Rain = 0
KTAS 091105Z 10005KT 12/07 A302 RMK A01 T01160070  RH  073%=      5-min Rain = 0
KTAS 091106Z 10005KT 12/07 A302 RMK A01 T01160070  RH  073%=      5-min Rain = 0
KTAS 091107Z 10005KT 12/07 A302 RMK A01 T01160070  RH  073%=      5-min Rain = 0
KTAS 091108Z 10005KT 12/07 A302 RMK A01 T01160070  RH  073%=      5-min Rain = 0
KTAS 091109Z 10005KT 12/07 A302 RMK A01 T01160070  RH  073%=      5-min Rain = 0
KTAS 091110Z 10005KT 12/07 A302 RMK A01 T01160071  RH  073%=      5-min Rain = 0
KTAS 091111Z 10005KT 12/07 A302 RMK A01 T01160070  RH  073%=      5-min Rain = 0
KTAS 091112Z 10005KT 12/07 A302 RMK A01 T01170070  RH  073%=      5-min Rain = 0
KTAS 091113Z 10005KT 12/07 A302 RMK A01 T01160070  RH  073%=      5-min Rain = 0
KTAS 091114Z 10005KT 12/07 A302 RMK A01 T01160070  RH  073%=      5-min Rain = 0
KTAS 091115Z 10005KT 12/07 A302 RMK A01 T01170071  RH  073%=      5-min Rain = 0
KTAS 091116Z 10005KT 12/07 A302 RMK A01 T01170071  RH  073%=      5-min Rain = 0
KTAS 091117Z 10005KT 12/07 A302 RMK A01 T01170071  RH  073%=      5-min Rain = 0
KTAS 091118Z 10005KT 12/07 A302 RMK A01 T01170071  RH  073%=      5-min Rain = 0
KTAS 091119Z 09005KT 12/07 A302 RMK A01 T01170070  RH  073%=      5-min Rain = 0
KTAS 091120Z 09005KT 12/07 A3021 RMK A01 T01170070  RH  073%=      5-min Rain = 0
KTAS 091121Z 09005KT 12/07 A3021 RMK A01 T01160070  RH  073%=      5-min Rain = 0
KTAS 091122Z 09005KT 12/07 A3021 RMK A01 T01160070  RH  073%=      5-min Rain = 0
KTAS 091123Z 09005KT 12/07 A3021 RMK A01 T01150070  RH  074%=      5-min Rain = 0
KTAS 091124Z 09005KT 12/07 A3021 RMK A01 T01150070  RH  074%=      5-min Rain = 0
KTAS 091125Z 09005KT 12/07 A3021 RMK A01 T01150071  RH  074%=      5-min Rain = 0
KTAS 091126Z 09005KT 12/07 A3021 RMK A01 T01150071  RH  074%=      5-min Rain = 0
KTAS 091127Z 08005KT 12/07 A3021 RMK A01 T01150071  RH  074%=      5-min Rain = 0
KTAS 091128Z 09005KT 12/07 A3021 RMK A01 T01150071  RH  074%=      5-min Rain = 0
KTAS 091129Z 09005KT 12/07 A3021 RMK A01 T01150071  RH  074%=      5-min Rain = 0
KTAS 091130Z 08004KT 12/07 A3021 RMK A01 T01160072  RH  074%=      5-min Rain = 0
KTAS 091131Z 08004KT 12/07 A3021 RMK A01 T01150072  RH  074%=      5-min Rain = 0
KTAS 091132Z 08004KT 12/07 A3021 RMK A01 T01150071  RH  074%=      5-min Rain = 0
KTAS 091133Z 08004KT 12/07 A3021 RMK A01 T01150071  RH  075%=      5-min Rain = 0
KTAS 091134Z 08004KT 12/07 A3021 RMK A01 T01150071  RH  075%=      5-min Rain = 0
KTAS 091135Z 08004KT 12/07 A3021 RMK A01 T01150072  RH  075%=      5-min Rain = 0
KTAS 091136Z 08004KT 12/07 A3021 RMK A01 T01150071  RH  075%=      5-min Rain = 0
KTAS 091137Z 08004KT 12/07 A3021 RMK A01 T01150072  RH  075%=      5-min Rain = 0
KTAS 091138Z 09004KT 12/07 A3021 RMK A01 T01160072  RH  075%=      5-min Rain = 0
KTAS 091139Z 09004KT 12/07 A3021 RMK A01 T01160072  RH  074%=      5-min Rain = 0
KTAS 091140Z 09005KT 12/07 A3021 RMK A01 T01160072  RH  074%=      5-min Rain = 0
KTAS 091141Z 09005KT 12/07 A3021 RMK A01 T01160072  RH  074%=      5-min Rain = 0
KTAS 091142Z 09005KT 12/07 A3021 RMK A01 T01160072  RH  074%=      5-min Rain = 0
KTAS 091143Z 10005KT 12/07 A3021 RMK A01 T01170072  RH  074%=      5-min Rain = 0
KTAS 091144Z 10005KT 12/07 A3021 RMK A01 T01170072  RH  074%=      5-min Rain = 0
KTAS 091145Z 10005KT 12/07 A3021 RMK A01 T01170071  RH  074%=      5-min Rain = 0
KTAS 091146Z 10005KT 12/07 A3021 RMK A01 T01160071  RH  074%=      5-min Rain = 0
KTAS 091147Z 10005KT 12/07 A3021 RMK A01 T01160071  RH  074%=      5-min Rain = 0
KTAS 091148Z 10005KT 12/07 A3021 RMK A01 T01160071  RH  074%=      5-min Rain = 0
KTAS 091149Z 10005KT 12/07 A3021 RMK A01 T01160072  RH  074%=      5-min Rain = 0
KTAS 091150Z 10005KT 12/07 A3021 RMK A01 T01160071  RH  074%=      5-min Rain = 0
KTAS 091151Z 10005KT 12/07 A3021 RMK A01 T01160072  RH  074%=      5-min Rain = 0
KTAS 091152Z 10005KT 12/07 A3021 RMK A01 T01160072  RH  074%=      5-min Rain = 0
KTAS 091153Z 11005KT 12/07 A3021 RMK A01 T01160072  RH  074%=      5-min Rain = 0
KTAS 091154Z 11006KT 12/07 A3021 RMK A01 T01160072  RH  074%=      5-min Rain = 0
KTAS 091155Z 11006KT 12/07 A3021 RMK A01 T01160072  RH  074%=      5-min Rain = 0
KTAS 091156Z 11006KT 12/07 A3021 RMK A01 T01160072  RH  074%=      5-min Rain = 0
KTAS 091157Z 11005KT 12/07 A3021 RMK A01 T01160072  RH  074%=      5-min Rain = 0
KTAS 091158Z 11005KT 12/07 A3021 RMK A01 T01160072  RH  074%=      5-min Rain = 0
KTAS 091159Z 11005KT 12/07 A3021 RMK A01 T01150072  RH  074%=      5-min Rain = 0
KTAS 091200Z 11006KT 12/07 A3021 RMK A01 T01150071  RH  074%=      5-min Rain = 0
KTAS 091201Z 11006KT 12/07 A3021 RMK A01 T01150071  RH  075%=      5-min Rain = 0
KTAS 091202Z 11006KT 11/07 A3021 RMK A01 T01140071  RH  075%=      5-min Rain = 0
KTAS 091203Z 10006KT 11/07 A3021 RMK A01 T01140071  RH  075%=      5-min Rain = 0
KTAS 091204Z 10005KT 11/07 A3021 RMK A01 T01130070  RH  075%=      5-min Rain = 0
KTAS 091205Z 11006KT 11/07 A3021 RMK A01 T01130070  RH  075%=      5-min Rain = 0
KTAS 091206Z 10005KT 11/07 A3021 RMK A01 T01120070  RH  075%=      5-min Rain = 0
KTAS 091207Z 11005KT 11/07 A3021 RMK A01 T01120070  RH  075%=      5-min Rain = 0
KTAS 091208Z 11005KT 11/07 A3021 RMK A01 T01120070  RH  075%=      5-min Rain = 0
KTAS 091209Z 11005KT 11/07 A3021 RMK A01 T01110070  RH  076%=      5-min Rain = 0
KTAS 091210Z 11005KT 11/07 A3021 RMK A01 T01110070  RH  076%=      5-min Rain = 0
KTAS 091211Z 11005KT 11/07 A3021 RMK A01 T01110070  RH  076%=      5-min Rain = 0
KTAS 091212Z 11005KT 11/07 A3021 RMK A01 T01100070  RH  076%=      5-min Rain = 0
KTAS 091213Z 11005KT 11/07 A3021 RMK A01 T01100070  RH  076%=      5-min Rain = 0
KTAS 091214Z 11005KT 11/07 A3021 RMK A01 T01100070  RH  076%=      5-min Rain = 0
KTAS 091215Z 11005KT 11/07 A3021 RMK A01 T01090070  RH  077%=      5-min Rain = 0
KTAS 091216Z 11005KT 11/07 A3021 RMK A01 T01090070  RH  077%=      5-min Rain = 0
KTAS 091217Z 11005KT 11/07 A3021 RMK A01 T01090070  RH  077%=      5-min Rain = 0
KTAS 091218Z 11006KT 11/07 A3021 RMK A01 T01090071  RH  077%=      5-min Rain = 0
KTAS 091219Z 11006KT 11/07 A3021 RMK A01 T01100071  RH  077%=      5-min Rain = 0
KTAS 091220Z 11006KT 11/07 A3021 RMK A01 T01100072  RH  077%=      5-min Rain = 0
KTAS 091221Z 12006KT 11/07 A3022 RMK A01 T01110072  RH  077%=      5-min Rain = 0
KTAS 091222Z 12006KT 11/07 A3022 RMK A01 T01120072  RH  077%=      5-min Rain = 0
KTAS 091223Z 12006KT 11/07 A3022 RMK A01 T01120072  RH  077%=      5-min Rain = 0
KTAS 091224Z 12006KT 11/07 A3022 RMK A01 T01120073  RH  077%=      5-min Rain = 0
KTAS 091225Z 12006KT 11/07 A3022 RMK A01 T01120073  RH  077%=      5-min Rain = 0
KTAS 091226Z 12006KT 11/07 A3022 RMK A01 T01130073  RH  076%=      5-min Rain = 0
KTAS 091227Z 12006KT 11/07 A3022 RMK A01 T01130073  RH  076%=      5-min Rain = 0
KTAS 091228Z 12006KT 11/07 A3022 RMK A01 T01130073  RH  076%=      5-min Rain = 0
KTAS 091229Z 12006KT 11/07 A3022 RMK A01 T01130073  RH  076%=      5-min Rain = 0
KTAS 091230Z 12006KT 11/07 A3022 RMK A01 T01130073  RH  076%=      5-min Rain = 0
KTAS 091231Z 12006KT 11/07 A3022 RMK A01 T01130073  RH  077%=      5-min Rain = 0
KTAS 091232Z 12006KT 11/07 A3022 RMK A01 T01130074  RH  077%=      5-min Rain = 0
KTAS 091233Z 12006KT 11/07 A3022 RMK A01 T01130074  RH  077%=      5-min Rain = 0
KTAS 091234Z 11006KT 11/07 A3022 RMK A01 T01140074  RH  077%=      5-min Rain = 0
KTAS 091235Z 11006KT 11/07 A3022 RMK A01 T01140074  RH  077%=      5-min Rain = 0
KTAS 091236Z 11006KT 11/07 A3022 RMK A01 T01140074  RH  077%=      5-min Rain = 0
KTAS 091237Z 11006KT 11/07 A3022 RMK A01 T01140074  RH  077%=      5-min Rain = 0
KTAS 091238Z 11006KT 11/07 A3022 RMK A01 T01140074  RH  077%=      5-min Rain = 0
KTAS 091239Z 11006KT 11/07 A3022 RMK A01 T01140074  RH  077%=      5-min Rain = 0
KTAS 091240Z 11006KT 11/08 A3022 RMK A01 T01140075  RH  077%=      5-min Rain = 0
KTAS 091241Z 11006KT 11/08 A3022 RMK A01 T01140075  RH  077%=      5-min Rain = 0
KTAS 091242Z 12006KT 11/08 A3022 RMK A01 T01140075  RH  077%=      5-min Rain = 0
KTAS 091243Z 12006KT 12/08 A3022 RMK A01 T01150076  RH  077%=      5-min Rain = 0
KTAS 091244Z 12006KT 12/08 A3022 RMK A01 T01160077  RH  077%=      5-min Rain = 0
KTAS 091245Z 12006KT 12/08 A3022 RMK A01 T01170077  RH  077%=      5-min Rain = 0
KTAS 091246Z 12006KT 12/08 A3022 RMK A01 T01180077  RH  076%=      5-min Rain = 0
KTAS 091247Z 12006KT 12/08 A3022 RMK A01 T01180077  RH  076%=      5-min Rain = 0
KTAS 091248Z 12006KT 12/08 A3022 RMK A01 T01190078  RH  076%=      5-min Rain = 0
KTAS 091249Z 12006KT 12/08 A3022 RMK A01 T01200078  RH  076%=      5-min Rain = 0
KTAS 091250Z 12006KT 12/08 A3022 RMK A01 T01200078  RH  075%=      5-min Rain = 0
KTAS 091251Z 12006KT 12/08 A3022 RMK A01 T01210079  RH  075%=      5-min Rain = 0
KTAS 091252Z 12006KT 12/08 A3022 RMK A01 T01210079  RH  075%=      5-min Rain = 0
KTAS 091253Z 12006KT 12/08 A3022 RMK A01 T01220079  RH  075%=      5-min Rain = 0
KTAS 091254Z 12006KT 12/08 A3022 RMK A01 T01230079  RH  075%=      5-min Rain = 0
KTAS 091255Z 12006KT 12/08 A3022 RMK A01 T01240080  RH  074%=      5-min Rain = 0
KTAS 091256Z 12006KT 13/08 A3022 RMK A01 T01250080  RH  074%=      5-min Rain = 0
KTAS 091257Z 12006KT 13/08 A3022 RMK A01 T01260080  RH  074%=      5-min Rain = 0
KTAS 091258Z 12006KT 13/08 A3022 RMK A01 T01260080  RH  074%=      5-min Rain = 0
KTAS 091259Z 12006KT 13/08 A3022 RMK A01 T01270081  RH  073%=      5-min Rain = 0
KTAS 091300Z 11006KT 13/08 A3023 RMK A01 T01270081  RH  073%=      5-min Rain = 0
KTAS 091301Z 11006KT 13/08 A3023 RMK A01 T01280081  RH  073%=      5-min Rain = 0
KTAS 091302Z 11006KT 13/08 A3023 RMK A01 T01290082  RH  073%=      5-min Rain = 0
KTAS 091303Z 11006KT 13/08 A3023 RMK A01 T01300082  RH  073%=      5-min Rain = 0
KTAS 091304Z 11006KT 13/08 A3023 RMK A01 T01300083  RH  073%=      5-min Rain = 0
KTAS 091305Z 11006KT 13/08 A3023 RMK A01 T01310083  RH  073%=      5-min Rain = 0
KTAS 091306Z 11006KT 13/08 A3023 RMK A01 T01320083  RH  072%=      5-min Rain = 0
KTAS 091307Z 12006KT 13/08 A3023 RMK A01 T01330083  RH  072%=      5-min Rain = 0
KTAS 091308Z 12006KT 13/08 A3023 RMK A01 T01340083  RH  071%=      5-min Rain = 0
KTAS 091309Z 12006KT 14/08 A3023 RMK A01 T01350083  RH  071%=      5-min Rain = 0
KTAS 091310Z 12006KT 14/08 A3023 RMK A01 T01370084  RH  071%=      5-min Rain = 0
KTAS 091311Z 12005KT 14/09 A3023 RMK A01 T01380085  RH  070%=      5-min Rain = 0
KTAS 091312Z 11005KT 14/09 A3023 RMK A01 T01390085  RH  070%=      5-min Rain = 0
KTAS 091313Z 12005KT 14/09 A3023 RMK A01 T01400086  RH  070%=      5-min Rain = 0
KTAS 091314Z 12006KT 14/09 A3023 RMK A01 T01410085  RH  069%=      5-min Rain = 0
KTAS 091315Z 12005KT 14/09 A3023 RMK A01 T01420086  RH  069%=      5-min Rain = 0
KTAS 091316Z 12005KT 14/09 A3023 RMK A01 T01420087  RH  069%=      5-min Rain = 0
KTAS 091317Z 11005KT 14/09 A3023 RMK A01 T01430086  RH  068%=      5-min Rain = 0
KTAS 091318Z 12005KT 14/09 A3023 RMK A01 T01440086  RH  068%=      5-min Rain = 0
KTAS 091319Z 11005KT 14/09 A3023 RMK A01 T01440086  RH  068%=      5-min Rain = 0
KTAS 091320Z 12005KT 15/09 A3023 RMK A01 T01450086  RH  068%=      5-min Rain = 0
KTAS 091321Z 11004KT 15/09 A3023 RMK A01 T01460086  RH  067%=      5-min Rain = 0
KTAS 091322Z 12004KT 15/09 A3024 RMK A01 T01470087  RH  067%=      5-min Rain = 0
KTAS 091323Z 12004KT 15/09 A3024 RMK A01 T01470087  RH  067%=      5-min Rain = 0
KTAS 091324Z 12005KT 15/09 A3024 RMK A01 T01480087  RH  067%=      5-min Rain = 0
KTAS 091325Z 11005KT 15/09 A3024 RMK A01 T01490087  RH  066%=      5-min Rain = 0
KTAS 091326Z 12005KT 15/09 A3024 RMK A01 T01500087  RH  066%=      5-min Rain = 0
KTAS 091327Z 12006KT 15/09 A3024 RMK A01 T01500086  RH  066%=      5-min Rain = 0
KTAS 091328Z 12005KT 15/09 A3024 RMK A01 T01510087  RH  065%=      5-min Rain = 0
KTAS 091329Z 12005KT 15/09 A3024 RMK A01 T01510087  RH  065%=      5-min Rain = 0
KTAS 091330Z 12005KT 15/09 A3024 RMK A01 T01520087  RH  065%=      5-min Rain = 0
KTAS 091331Z 13005KT 15/09 A3024 RMK A01 T01530087  RH  065%=      5-min Rain = 0
KTAS 091332Z 12005KT 15/09 A3024 RMK A01 T01540088  RH  065%=      5-min Rain = 0
KTAS 091333Z 12006KT 16/09 A3024 RMK A01 T01550088  RH  064%=      5-min Rain = 0
KTAS 091334Z 12006KT 16/09 A3024 RMK A01 T01550087  RH  064%=      5-min Rain = 0
KTAS 091335Z 12005KT 16/09 A3024 RMK A01 T01550088  RH  064%=      5-min Rain = 0
KTAS 091336Z 12005KT 16/09 A3024 RMK A01 T01560088  RH  064%=      5-min Rain = 0
KTAS 091337Z 12006KT 16/09 A3024 RMK A01 T01560088  RH  064%=      5-min Rain = 0
KTAS 091338Z 12006KT 16/09 A3024 RMK A01 T01570088  RH  063%=      5-min Rain = 0
KTAS 091339Z 12006KT 16/09 A3024 RMK A01 T01570088  RH  064%=      5-min Rain = 0
KTAS 091340Z 13006KT 16/09 A3024 RMK A01 T01570088  RH  063%=      5-min Rain = 0
KTAS 091341Z 13006KT 16/09 A3024 RMK A01 T01580089  RH  063%=      5-min Rain = 0
KTAS 091342Z 12006KT 16/09 A3024 RMK A01 T01590090  RH  063%=      5-min Rain = 0
KTAS 091343Z 13006KT 16/09 A3024 RMK A01 T01610090  RH  063%=      5-min Rain = 0
KTAS 091344Z 12006KT 16/09 A3024 RMK A01 T01610091  RH  063%=      5-min Rain = 0
KTAS 091345Z 13006KT 16/09 A3024 RMK A01 T01620091  RH  063%=      5-min Rain = 0
KTAS 091346Z 13006KT 16/09 A3024 RMK A01 T01630091  RH  062%=      5-min Rain = 0
KTAS 091347Z 12005KT 16/09 A3024 RMK A01 T01640093  RH  063%=      5-min Rain = 0
KTAS 091348Z 12006KT 17/09 A3024 RMK A01 T01660093  RH  062%=      5-min Rain = 0
KTAS 091349Z 13007KT 17/09 A3024 RMK A01 T01670092  RH  061%=      5-min Rain = 0
KTAS 091350Z 13007KT 17/09 A3024 RMK A01 T01660091  RH  061%=      5-min Rain = 0
KTAS 091351Z 12006KT 17/09 A3024 RMK A01 T01660092  RH  061%=      5-min Rain = 0
KTAS 091352Z 11006KT 17/09 A3024 RMK A01 T01670093  RH  062%=      5-min Rain = 0
KTAS 091353Z 12007KT 17/09 A3024 RMK A01 T01670092  RH  061%=      5-min Rain = 0
KTAS 091354Z 12006KT 17/09 A3024 RMK A01 T01680093  RH  061%=      5-min Rain = 0
KTAS 091355Z 12006KT 17/09 A3024 RMK A01 T01690094  RH  061%=      5-min Rain = 0
KTAS 091356Z 12007KT 17/09 A3025 RMK A01 T01690093  RH  061%=      5-min Rain = 0
KTAS 091357Z 12007KT 17/09 A3025 RMK A01 T01700094  RH  061%=      5-min Rain = 0
KTAS 091358Z 11006KT 17/09 A3025 RMK A01 T01700094  RH  061%=      5-min Rain = 0
KTAS 091359Z 12006KT 17/09 A3025 RMK A01 T01700094  RH  061%=      5-min Rain = 0
KTAS 091400Z 12007KT 17/09 A3025 RMK A01 T01710094  RH  060%=      5-min Rain = 0
KTAS 091401Z 13006KT 17/09 A3025 RMK A01 T01700094  RH  061%=      5-min Rain = 0
KTAS 091402Z 12005KT 17/10 A3025 RMK A01 T01710095  RH  061%=      5-min Rain = 0
KTAS 091403Z 12005KT 17/10 A3025 RMK A01 T01730096  RH  061%=      5-min Rain = 0
KTAS 091404Z 12005KT 17/10 A3025 RMK A01 T01740096  RH  060%=      5-min Rain = 0
KTAS 091405Z 13006KT 17/10 A3025 RMK A01 T01740096  RH  060%=      5-min Rain = 0
KTAS 091406Z 12005KT 18/10 A3025 RMK A01 T01750096  RH  060%=      5-min Rain = 0
KTAS 091407Z 13006KT 18/10 A3025 RMK A01 T01760097  RH  060%=      5-min Rain = 0
KTAS 091408Z 13006KT 18/10 A3025 RMK A01 T01760097  RH  060%=      5-min Rain = 0
KTAS 091409Z 14005KT 18/10 A3025 RMK A01 T01760097  RH  060%=      5-min Rain = 0
KTAS 091410Z 14005KT 18/10 A3025 RMK A01 T01770097  RH  060%=      5-min Rain = 0
KTAS 091411Z 14007KT 18/10 A3025 RMK A01 T01780097  RH  059%=      5-min Rain = 0
KTAS 091412Z 14008KT 18/10 A3025 RMK A01 T01780096  RH  059%=      5-min Rain = 0
KTAS 091413Z 14008KT 18/10 A3025 RMK A01 T01770097  RH  059%=      5-min Rain = 0
KTAS 091414Z 13008KT 18/10 A3025 RMK A01 T01780097  RH  059%=      5-min Rain = 0
KTAS 091415Z 13007KT 18/10 A3025 RMK A01 T01790098  RH  059%=      5-min Rain = 0
KTAS 091416Z 14007KT 18/10 A3025 RMK A01 T01800097  RH  059%=      5-min Rain = 0
KTAS 091417Z 13007KT 18/10 A3025 RMK A01 T01810099  RH  059%=      5-min Rain = 0
KTAS 091418Z 14007KT 18/10 A3025 RMK A01 T01820099  RH  058%=      5-min Rain = 0
KTAS 091419Z 14006KT 18/10 A3025 RMK A01 T01830099  RH  058%=      5-min Rain = 0
KTAS 091420Z 14008KT 18/10 A3025 RMK A01 T01840099  RH  058%=      5-min Rain = 0
KTAS 091421Z 14007KT 18/10 A3025 RMK A01 T01840099  RH  057%=      5-min Rain = 0
KTAS 091422Z 13007KT 19/10 A3025 RMK A01 T01850100  RH  058%=      5-min Rain = 0
KTAS 091423Z 15006KT 19/10 A3025 RMK A01 T01850100  RH  057%=      5-min Rain = 0
KTAS 091424Z 14008KT 19/10 A3025 RMK A01 T01870101  RH  057%=      5-min Rain = 0
KTAS 091425Z 13008KT 19/10 A3025 RMK A01 T01870100  RH  057%=      5-min Rain = 0
KTAS 091426Z 13009KT 19/10 A3025 RMK A01 T01880100  RH  057%=      5-min Rain = 0
KTAS 091427Z 14007KT 19/10 A3025 RMK A01 T01880099  RH  056%=      5-min Rain = 0
KTAS 091428Z 14009KT 19/10 A3025 RMK A01 T01880100  RH  057%=      5-min Rain = 0
KTAS 091429Z 14008KT 19/10 A3024 RMK A01 T01880100  RH  056%=      5-min Rain = 0
KTAS 091430Z 14008KT 19/10 A3024 RMK A01 T01880100  RH  056%=      5-min Rain = 0
KTAS 091431Z 15009KT 19/10 A3024 RMK A01 T01890101  RH  056%=      5-min Rain = 0
KTAS 091432Z 14009KT 19/10 A3024 RMK A01 T01900101  RH  056%=      5-min Rain = 0
KTAS 091433Z 15008KT 19/10 A3024 RMK A01 T01910101  RH  056%=      5-min Rain = 0
KTAS 091434Z 15009KT 19/10 A3024 RMK A01 T01910101  RH  056%=      5-min Rain = 0
KTAS 091435Z 15008KT 19/10 A3025 RMK A01 T01910101  RH  056%=      5-min Rain = 0
KTAS 091436Z 14008KT 19/10 A3025 RMK A01 T01930103  RH  056%=      5-min Rain = 0
KTAS 091437Z 14007KT 20/10 A3025 RMK A01 T01950102  RH  055%=      5-min Rain = 0
KTAS 091438Z 16010KT 20/10 A3025 RMK A01 T01950101  RH  054%=      5-min Rain = 0
KTAS 091439Z 15009KT 20/10 A3025 RMK A01 T01950101  RH  055%=      5-min Rain = 0
KTAS 091440Z 15007KT 20/10 A3025 RMK A01 T01950102  RH  055%=      5-min Rain = 0
KTAS 091441Z 16009KT 20/10 A3025 RMK A01 T01970104  RH  055%=      5-min Rain = 0
KTAS 091442Z 15007KT 20/10 A3025 RMK A01 T01990104  RH  054%=      5-min Rain = 0
KTAS 091443Z 14010KT 20/10 A3025 RMK A01 T02000102  RH  053%=      5-min Rain = 0
KTAS 091444Z 16008KT 20/10 A3025 RMK A01 T01990104  RH  054%=      5-min Rain = 0
KTAS 091445Z 16011KT 20/10 A3025 RMK A01 T01990102  RH  054%=      5-min Rain = 0
KTAS 091446Z 15010KT 20/10 A3025 RMK A01 T01980102  RH  054%=      5-min Rain = 0
KTAS 091447Z 15009KT 20/10 A3025 RMK A01 T01980102  RH  054%=      5-min Rain = 0
KTAS 091448Z 16009KT 20/10 A3025 RMK A01 T01990103  RH  054%=      5-min Rain = 0
KTAS 091449Z 16010KT 20/10 A3025 RMK A01 T01990103  RH  054%=      5-min Rain = 0
KTAS 091450Z 16009KT 20/10 A3025 RMK A01 T02000103  RH  054%=      5-min Rain = 0
KTAS 091451Z 16010KT 20/10 A3025 RMK A01 T02000104  RH  054%=      5-min Rain = 0
KTAS 091452Z 16009KT 20/10 A3025 RMK A01 T02010103  RH  053%=      5-min Rain = 0
KTAS 091453Z 16007KT 20/10 A3025 RMK A01 T02020104  RH  053%=      5-min Rain = 0
KTAS 091454Z 16007KT 20/11 A3025 RMK A01 T02040106  RH  053%=      5-min Rain = 0
KTAS 091455Z 15007KT 21/11 A3026 RMK A01 T02060106  RH  053%=      5-min Rain = 0
KTAS 091456Z 16008KT 21/11 A3026 RMK A01 T02060105  RH  052%=      5-min Rain = 0
KTAS 091457Z 16008KT 21/10 A3026 RMK A01 T02050103  RH  052%=      5-min Rain = 0
KTAS 091458Z 16005KT 20/11 A3026 RMK A01 T02030106  RH  053%=      5-min Rain = 0
KTAS 091459Z 16008KT 21/11 A3026 RMK A01 T02060108  RH  053%=      5-min Rain = 0
KTAS 091500Z 16009KT 21/11 A3026 RMK A01 T02080106  RH  052%=      5-min Rain = 0
KTAS 091501Z 16007KT 21/11 A3026 RMK A01 T02080107  RH  052%=      5-min Rain = 0
KTAS 091502Z 16008KT 21/11 A3026 RMK A01 T02100107  RH  052%=      5-min Rain = 0
KTAS 091503Z 17010KT 21/11 A3026 RMK A01 T02110106  RH  051%=      5-min Rain = 0
KTAS 091504Z 16009KT 21/11 A3026 RMK A01 T02090105  RH  051%=      5-min Rain = 0
KTAS 091505Z 15009KT 21/11 A3026 RMK A01 T02090106  RH  052%=      5-min Rain = 0
KTAS 091506Z 16011KT 21/11 A3026 RMK A01 T02090105  RH  051%=      5-min Rain = 0
KTAS 091507Z 16010KT 21/10 A3026 RMK A01 T02090104  RH  051%=      5-min Rain = 0
KTAS 091508Z 16010KT 21/10 A3026 RMK A01 T02080104  RH  051%=      5-min Rain = 0
KTAS 091509Z 15008KT 21/11 A3026 RMK A01 T02080105  RH  051%=      5-min Rain = 0
KTAS 091510Z 16009KT 21/10 A3026 RMK A01 T02080104  RH  051%=      5-min Rain = 0
KTAS 091511Z 17008KT 21/11 A3026 RMK A01 T02090105  RH  052%=      5-min Rain = 0
KTAS 091512Z 16006KT 21/11 A3026 RMK A01 T02110108  RH  052%=      5-min Rain = 0
KTAS 091513Z 16009KT 22/11 A3026 RMK A01 T02150108  RH  050%=      5-min Rain = 0
KTAS 091514Z 15009KT 21/11 A3026 RMK A01 T02140106  RH  050%=      5-min Rain = 0
KTAS 091515Z 15008KT 21/11 A3026 RMK A01 T02140106  RH  050%=      5-min Rain = 0
KTAS 091516Z 16008KT 21/11 A3026 RMK A01 T02140107  RH  051%=      5-min Rain = 0
KTAS 091517Z 17009KT 22/11 A3026 RMK A01 T02160109  RH  051%=      5-min Rain = 0
KTAS 091518Z 16011KT 22/11 A3026 RMK A01 T02170106  RH  049%=      5-min Rain = 0
KTAS 091519Z 16011KT 22/11 A3026 RMK A01 T02150105  RH  049%=      5-min Rain = 0
KTAS 091520Z 17009KT 21/11 A3026 RMK A01 T02140106  RH  050%=      5-min Rain = 0
KTAS 091521Z 16009KT 22/11 A3026 RMK A01 T02150108  RH  050%=      5-min Rain = 0
KTAS 091522Z 17009KT 22/11 A3026 RMK A01 T02170109  RH  050%=      5-min Rain = 0
KTAS 091523Z 17009KT 22/11 A3026 RMK A01 T02200109  RH  050%=      5-min Rain = 0
KTAS 091524Z 17011KT 22/11 A3026 RMK A01 T02190107  RH  049%=      5-min Rain = 0
KTAS 091525Z 16012KT 22/11 A3026 RMK A01 T02160106  RH  049%=      5-min Rain = 0
KTAS 091526Z 17011KT 22/11 A3026 RMK A01 T02150105  RH  050%=      5-min Rain = 0
KTAS 091527Z 16010KT 21/11 A3026 RMK A01 T02140106  RH  050%=      5-min Rain = 0
KTAS 091528Z 16012KT 22/11 A3026 RMK A01 T02150106  RH  050%=      5-min Rain = 0
KTAS 091529Z 17011KT 22/11 A3026 RMK A01 T02160108  RH  050%=      5-min Rain = 0
KTAS 091530Z 16011KT 22/11 A3026 RMK A01 T02170107  RH  050%=      5-min Rain = 0
KTAS 091531Z 15012KT 22/11 A3026 RMK A01 T02170107  RH  049%=      5-min Rain = 0
KTAS 091532Z 16009KT 22/11 A3026 RMK A01 T02170107  RH  049%=      5-min Rain = 0
KTAS 091533Z 17010KT 22/11 A3027 RMK A01 T02190109  RH  050%=      5-min Rain = 0
KTAS 091534Z 18008KT 22/11 A3026 RMK A01 T02210109  RH  049%=      5-min Rain = 0
KTAS 091535Z 17009KT 22/11 A3027 RMK A01 T02210108  RH  049%=      5-min Rain = 0
KTAS 091536Z 15011KT 22/11 A3027 RMK A01 T02210109  RH  049%=      5-min Rain = 0
KTAS 091537Z 16010KT 22/11 A3027 RMK A01 T02220107  RH  048%=      5-min Rain = 0
KTAS 091538Z 17009KT 22/11 A3027 RMK A01 T02200107  RH  048%=      5-min Rain = 0
KTAS 091539Z 16011KT 22/11 A3027 RMK A01 T02180109  RH  050%=      5-min Rain = 0
KTAS 091540Z 16010KT 22/11 A3027 RMK A01 T02200110  RH  049%=      5-min Rain = 0
KTAS 091541Z 16012KT 22/11 A3027 RMK A01 T02230109  RH  048%=      5-min Rain = 0
KTAS 091542Z 16012KT 22/11 A3027 RMK A01 T02220108  RH  048%=      5-min Rain = 0
KTAS 091543Z 16011KT 22/11 A3027 RMK A01 T02210108  RH  049%=      5-min Rain = 0
KTAS 091544Z 17012KT 22/11 A3026 RMK A01 T02200107  RH  049%=      5-min Rain = 0
KTAS 091545Z 16012KT 22/11 A3027 RMK A01 T02200109  RH  049%=      5-min Rain = 0
KTAS 091546Z 17010KT 22/11 A3026 RMK A01 T02220109  RH  049%=      5-min Rain = 0
KTAS 091547Z 17011KT 22/11 A3026 RMK A01 T02230109  RH  048%=      5-min Rain = 0
KTAS 091548Z 17010KT 22/11 A3026 RMK A01 T02240109  RH  048%=      5-min Rain = 0
KTAS 091549Z 18009KT 23/11 A3026 RMK A01 T02260110  RH  048%=      5-min Rain = 0
KTAS 091550Z 18010KT 23/11 A3026 RMK A01 T02260110  RH  048%=      5-min Rain = 0
KTAS 091551Z 18008KT 23/11 A3026 RMK A01 T02260111  RH  048%=      5-min Rain = 0
KTAS 091552Z 17007KT 23/11 A3026 RMK A01 T02280112  RH  048%=      5-min Rain = 0
KTAS 091553Z 18008KT 23/11 A3026 RMK A01 T02310112  RH  047%=      5-min Rain = 0
KTAS 091554Z 17010KT 23/11 A3026 RMK A01 T02280110  RH  047%=      5-min Rain = 0
KTAS 091555Z 15008G13KT 23/11 A3026 RMK A01 T02270111  RH  048%=      5-min Rain = 0
KTAS 091556Z 15010KT 23/11 A3026 RMK A01 T02280110  RH  047%=      5-min Rain = 0
KTAS 091557Z 16011KT 23/11 A3026 RMK A01 T02300112  RH  047%=      5-min Rain = 0
KTAS 091558Z 18009KT 23/11 A3026 RMK A01 T02330113  RH  047%=      5-min Rain = 0
KTAS 091559Z 18012KT 24/11 A3026 RMK A01 T02350109  RH  045%=      5-min Rain = 0
KTAS 091600Z 18011KT 23/11 A3026 RMK A01 T02320108  RH  046%=      5-min Rain = 0
KTAS 091601Z 18012KT 23/11 A3026 RMK A01 T02310107  RH  045%=      5-min Rain = 0
KTAS 091602Z 18011KT 23/11 A3026 RMK A01 T02300108  RH  046%=      5-min Rain = 0
KTAS 091603Z 17007G12KT 23/11 A3026 RMK A01 T02310111  RH  047%=      5-min Rain = 0
KTAS 091604Z 17011KT 24/11 A3026 RMK A01 T02350111  RH  046%=      5-min Rain = 0
KTAS 091605Z 16010KT 24/11 A3026 RMK A01 T02370110  RH  045%=      5-min Rain = 0
KTAS 091606Z 16012KT 24/11 A3026 RMK A01 T02350109  RH  045%=      5-min Rain = 0
KTAS 091607Z 17011KT 23/11 A3026 RMK A01 T02340110  RH  045%=      5-min Rain = 0
KTAS 091608Z 17010KT 24/11 A3026 RMK A01 T02360108  RH  045%=      5-min Rain = 0
KTAS 091609Z 17012KT 24/11 A3026 RMK A01 T02350106  RH  044%=      5-min Rain = 0
KTAS 091610Z 17010KT 23/11 A3026 RMK A01 T02330108  RH  045%=      5-min Rain = 0
KTAS 091611Z 16013KT 23/11 A3026 RMK A01 T02340107  RH  045%=      5-min Rain = 0
KTAS 091612Z 17011KT 23/11 A3026 RMK A01 T02320106  RH  045%=      5-min Rain = 0
KTAS 091613Z 18012KT 23/11 A3026 RMK A01 T02310107  RH  046%=      5-min Rain = 0
KTAS 091614Z 17012KT 23/11 A3026 RMK A01 T02300106  RH  046%=      5-min Rain = 0
KTAS 091615Z 17010KT 23/11 A3026 RMK A01 T02300108  RH  046%=      5-min Rain = 0
KTAS 091616Z 16008KT 23/11 A3026 RMK A01 T02320108  RH  046%=      5-min Rain = 0
KTAS 091617Z 17010KT 23/11 A3026 RMK A01 T02330109  RH  045%=      5-min Rain = 0
KTAS 091618Z 18011KT 24/11 A3026 RMK A01 T02360109  RH  045%=      5-min Rain = 0
KTAS 091619Z 17010KT 24/11 A3026 RMK A01 T02350107  RH  044%=      5-min Rain = 0
KTAS 091620Z 16011KT 23/11 A3026 RMK A01 T02330106  RH  045%=      5-min Rain = 0
KTAS 091621Z 17010KT 23/11 A3026 RMK A01 T02310106  RH  045%=      5-min Rain = 0
KTAS 091622Z 17011KT 24/11 A3026 RMK A01 T02350107  RH  044%=      5-min Rain = 0
KTAS 091623Z 17010KT 24/11 A3026 RMK A01 T02360107  RH  044%=      5-min Rain = 0
KTAS 091624Z 16011KT 23/11 A3026 RMK A01 T02340107  RH  045%=      5-min Rain = 0
KTAS 091625Z 18010KT 23/11 A3026 RMK A01 T02320106  RH  045%=      5-min Rain = 0
KTAS 091626Z 17011KT 23/11 A3026 RMK A01 T02320106  RH  045%=      5-min Rain = 0
KTAS 091627Z 18012KT 23/11 A3026 RMK A01 T02340108  RH  045%=      5-min Rain = 0
KTAS 091628Z 17010KT 24/11 A3026 RMK A01 T02360109  RH  045%=      5-min Rain = 0
KTAS 091629Z 19010KT 24/11 A3026 RMK A01 T02370110  RH  045%=      5-min Rain = 0
KTAS 091630Z 18011KT 24/11 A3026 RMK A01 T02400106  RH  043%=      5-min Rain = 0
KTAS 091631Z 18010KT 24/10 A3026 RMK A01 T02410104  RH  042%=      5-min Rain = 0
KTAS 091632Z 19009KT 24/11 A3026 RMK A01 T02400105  RH  042%=      5-min Rain = 0
KTAS 091633Z 18009KT 24/11 A3026 RMK A01 T02380105  RH  043%=      5-min Rain = 0
KTAS 091634Z 18010KT 24/11 A3026 RMK A01 T02380105  RH  043%=      5-min Rain = 0
KTAS 091635Z 19009KT 24/11 A3026 RMK A01 T02380105  RH  043%=      5-min Rain = 0
KTAS 091636Z 17010KT 24/11 A3026 RMK A01 T02390108  RH  044%=      5-min Rain = 0
KTAS 091637Z 16007KT 24/11 A3026 RMK A01 T02380107  RH  044%=      5-min Rain = 0
KTAS 091638Z 15008KT 24/11 A3026 RMK A01 T02400109  RH  044%=      5-min Rain = 0
KTAS 091639Z 15010KT 24/11 A3026 RMK A01 T02410106  RH  043%=      5-min Rain = 0
KTAS 091640Z 15010KT 24/11 A3026 RMK A01 T02390105  RH  043%=      5-min Rain = 0
KTAS 091641Z 15008KT 24/11 A3026 RMK A01 T02380106  RH  043%=      5-min Rain = 0
KTAS 091642Z 16009KT 24/11 A3026 RMK A01 T02400107  RH  043%=      5-min Rain = 0
KTAS 091643Z 17011KT 24/11 A3026 RMK A01 T02420105  RH  042%=      5-min Rain = 0
KTAS 091644Z 18009KT 24/11 A3026 RMK A01 T02410105  RH  042%=      5-min Rain = 0
KTAS 091645Z 18010KT 24/11 A3026 RMK A01 T02410106  RH  043%=      5-min Rain = 0
KTAS 091646Z 15009KT 24/11 A3026 RMK A01 T02430105  RH  042%=      5-min Rain = 0
KTAS 091647Z 18008KT 24/10 A3026 RMK A01 T02420103  RH  041%=      5-min Rain = 0
KTAS 091648Z 19007KT 24/10 A3026 RMK A01 T02400099  RH  041%=      5-min Rain = 0
KTAS 091649Z 16007KT 24/10 A3026 RMK A01 T02390102  RH  042%=      5-min Rain = 0
KTAS 091650Z 17008KT 24/11 A3026 RMK A01 T02430105  RH  042%=      5-min Rain = 0
KTAS 091651Z 18008KT 25/10 A3026 RMK A01 T02450102  RH  041%=      5-min Rain = 0
KTAS 091652Z 19010KT 24/10 A3026 RMK A01 T02440100  RH  040%=      5-min Rain = 0
KTAS 091653Z 18009KT 24/10 A3026 RMK A01 T02440097  RH  039%=      5-min Rain = 0
KTAS 091654Z 18007G12KT 24/10 A3026 RMK A01 T02440101  RH  040%=      5-min Rain = 0
KTAS 091655Z 18010KT 24/10 A3026 RMK A01 T02440099  RH  040%=      5-min Rain = 0
KTAS 091656Z 19009KT 24/10 A3026 RMK A01 T02430100  RH  040%=      5-min Rain = 0
KTAS 091657Z 20008KT 24/10 A3026 RMK A01 T02420101  RH  041%=      5-min Rain = 0
KTAS 091658Z 19006KT 24/10 A3026 RMK A01 T02420103  RH  042%=      5-min Rain = 0
KTAS 091659Z 18008KT 25/10 A3026 RMK A01 T02460103  RH  040%=      5-min Rain = 0
KTAS 091700Z 17009KT 25/10 A3026 RMK A01 T02470104  RH  041%=      5-min Rain = 0
KTAS 091701Z 17008KT 25/10 A3026 RMK A01 T02450103  RH  041%=      5-min Rain = 0
KTAS 091702Z 16009KT 24/10 A3026 RMK A01 T02430103  RH  041%=      5-min Rain = 0
KTAS 091703Z 19007KT 24/10 A3026 RMK A01 T02420103  RH  041%=      5-min Rain = 0
KTAS 091704Z 16009KT 24/11 A3026 RMK A01 T02430105  RH  042%=      5-min Rain = 0
KTAS 091705Z 17009KT 25/10 A3026 RMK A01 T02480101  RH  040%=      5-min Rain = 0
KTAS 091706Z 16009KT 25/10 A3026 RMK A01 T02460100  RH  040%=      5-min Rain = 0
KTAS 091707Z 16007KT 25/10 A3026 RMK A01 T02450100  RH  040%=      5-min Rain = 0
KTAS 091708Z 18007KT 25/10 A3026 RMK A01 T02470103  RH  040%=      5-min Rain = 0
KTAS 091709Z 19008KT 25/10 A3026 RMK A01 T02480100  RH  039%=      5-min Rain = 0
KTAS 091710Z 18007KT 25/10 A3026 RMK A01 T02470098  RH  039%=      5-min Rain = 0
KTAS 091711Z 19010KT 24/10 A3026 RMK A01 T02440099  RH  040%=      5-min Rain = 0
KTAS 091712Z 19009KT 24/10 A3026 RMK A01 T02440100  RH  040%=      5-min Rain = 0
KTAS 091713Z 19009KT 25/10 A3026 RMK A01 T02460099  RH  039%=      5-min Rain = 0
KTAS 091714Z 17009KT 25/10 A3026 RMK A01 T02460100  RH  040%=      5-min Rain = 0
KTAS 091715Z 18008KT 25/10 A3026 RMK A01 T02460101  RH  040%=      5-min Rain = 0
KTAS 091716Z 18008KT 25/10 A3026 RMK A01 T02460102  RH  040%=      5-min Rain = 0
KTAS 091717Z 18009KT 25/10 A3026 RMK A01 T02470102  RH  040%=      5-min Rain = 0
KTAS 091718Z 18008KT 25/10 A3026 RMK A01 T02460102  RH  040%=      5-min Rain = 0
KTAS 091719Z 19008KT 25/10 A3026 RMK A01 T02470101  RH  040%=      5-min Rain = 0
KTAS 091720Z 17007KT 25/10 A3026 RMK A01 T02460099  RH  039%=      5-min Rain = 0
KTAS 091721Z 18004KT 25/10 A3026 RMK A01 T02470099  RH  039%=      5-min Rain = 0
KTAS 091722Z 16004G10KT 25/10 A3026 RMK A01 T02470102  RH  040%=      5-min Rain = 0
KTAS 091723Z 17009KT 25/10 A3026 RMK A01 T02520098  RH  038%=      5-min Rain = 0
KTAS 091724Z 18007KT 25/10 A3026 RMK A01 T02510100  RH  038%=      5-min Rain = 0
KTAS 091725Z 19007KT 25/11 A3026 RMK A01 T02530105  RH  039%=      5-min Rain = 0
KTAS 091726Z 18007KT 26/10 A3026 RMK A01 T02590104  RH  038%=      5-min Rain = 0
KTAS 091727Z 18007KT 26/10 A3026 RMK A01 T02560103  RH  038%=      5-min Rain = 0
KTAS 091728Z 16006KT 26/11 A3026 RMK A01 T02580106  RH  039%=      5-min Rain = 0
KTAS 091729Z 17010KT 26/10 A3026 RMK A01 T02600102  RH  037%=      5-min Rain = 0
KTAS 091730Z 18008KT 26/10 A3026 RMK A01 T02570100  RH  037%=      5-min Rain = 0
KTAS 091731Z 17009KT 25/10 A3026 RMK A01 T02540099  RH  038%=      5-min Rain = 0
KTAS 091732Z 16008KT 25/10 A3026 RMK A01 T02530097  RH  037%=      5-min Rain = 0
KTAS 091733Z 17008KT 25/10 A3026 RMK A01 T02540098  RH  037%=      5-min Rain = 0
KTAS 091734Z 18006KT 25/10 A3026 RMK A01 T02530099  RH  038%=      5-min Rain = 0
KTAS 091735Z 19007KT 25/10 A3025 RMK A01 T02530101  RH  038%=      5-min Rain = 0
KTAS 091736Z 20006KT 26/10 A3025 RMK A01 T02550100  RH  037%=      5-min Rain = 0
KTAS 091737Z 18009KT 25/10 A3025 RMK A01 T02530101  RH  038%=      5-min Rain = 0
KTAS 091738Z 17008KT 25/10 A3025 RMK A01 T02530102  RH  039%=      5-min Rain = 0
KTAS 091739Z 17005KT 25/10 A3025 RMK A01 T02530104  RH  039%=      5-min Rain = 0
KTAS 091740Z 15008KT 25/10 A3025 RMK A01 T02540104  RH  039%=      5-min Rain = 0
KTAS 091741Z 15010KT 26/10 A3025 RMK A01 T02560104  RH  038%=      5-min Rain = 0
KTAS 091742Z 14008KT 26/11 A3025 RMK A01 T02600106  RH  038%=      5-min Rain = 0
KTAS 091743Z 15011KT 26/11 A3025 RMK A01 T02640105  RH  037%=      5-min Rain = 0
KTAS 091744Z 16007KT 26/10 A3025 RMK A01 T02630102  RH  036%=      5-min Rain = 0
KTAS 091745Z 17010KT 26/10 A3025 RMK A01 T02610100  RH  036%=      5-min Rain = 0
KTAS 091746Z 17009KT 26/10 A3025 RMK A01 T02590096  RH  036%=      5-min Rain = 0
KTAS 091747Z 16006KT 26/10 A3025 RMK A01 T02580100  RH  037%=      5-min Rain = 0
KTAS 091748Z 14004KT 26/10 A3025 RMK A01 T02570101  RH  037%=      5-min Rain = 0
KTAS 091749Z 14003KT 26/10 A3025 RMK A01 T02560102  RH  038%=      5-min Rain = 0
KTAS 091750Z 15004KT 26/10 A3025 RMK A01 T02580104  RH  038%=      5-min Rain = 0
KTAS 091751Z 14008KT 26/10 A3025 RMK A01 T02600104  RH  037%=      5-min Rain = 0
KTAS 091752Z 15007KT 26/11 A3025 RMK A01 T02580105  RH  038%=      5-min Rain = 0
KTAS 091753Z 15008KT 26/11 A3025 RMK A01 T02580105  RH  038%=      5-min Rain = 0
KTAS 091754Z 17008KT 26/11 A3025 RMK A01 T02590105  RH  038%=      5-min Rain = 0
KTAS 091755Z 14006KT 26/11 A3025 RMK A01 T02610106  RH  038%=      5-min Rain = 0
KTAS 091756Z 14010KT 26/10 A3025 RMK A01 T02630103  RH  037%=      5-min Rain = 0
KTAS 091757Z 14010KT 26/10 A3025 RMK A01 T02600099  RH  036%=      5-min Rain = 0
KTAS 091758Z 14009KT 26/10 A3025 RMK A01 T02570100  RH  037%=      5-min Rain = 0
KTAS 091759Z 16007KT 26/10 A3025 RMK A01 T02580102  RH  037%=      5-min Rain = 0
KTAS 091800Z 15007KT 26/10 A3025 RMK A01 T02600099  RH  036%=      5-min Rain = 0
KTAS 091801Z 15006KT 26/10 A3025 RMK A01 T02590097  RH  036%=      5-min Rain = 0
KTAS 091802Z 15005G10KT 26/10 A3024 RMK A01 T02570100  RH  037%=      5-min Rain = 0
KTAS 091803Z 13008KT 26/10 A3024 RMK A01 T02600101  RH  037%=      5-min Rain = 0
KTAS 091804Z 13008KT 26/10 A3024 RMK A01 T02590100  RH  037%=      5-min Rain = 0
KTAS 091805Z 13009KT 26/10 A3024 RMK A01 T02570100  RH  037%=      5-min Rain = 0
KTAS 091806Z 11007KT 26/10 A3024 RMK A01 T02590097  RH  036%=      5-min Rain = 0
KTAS 091807Z 13006KT 26/10 A3024 RMK A01 T02580099  RH  037%=      5-min Rain = 0
KTAS 091808Z 14006KT 26/10 A3024 RMK A01 T02610099  RH  036%=      5-min Rain = 0
KTAS 091809Z 15004KT 26/10 A3024 RMK A01 T02630098  RH  035%=      5-min Rain = 0
KTAS 091810Z 18004KT 26/10 A3024 RMK A01 T02620100  RH  036%=      5-min Rain = 0
KTAS 091811Z 15008KT 26/10 A3024 RMK A01 T02610101  RH  037%=      5-min Rain = 0
KTAS 091812Z 15009KT 26/10 A3024 RMK A01 T02640101  RH  036%=      5-min Rain = 0
KTAS 091813Z 16006KT 26/10 A3024 RMK A01 T02640101  RH  036%=      5-min Rain = 0
KTAS 091814Z 18004KT 26/10 A3024 RMK A01 T02640100  RH  036%=      5-min Rain = 0
KTAS 091815Z 14007KT 27/10 A3024 RMK A01 T02650098  RH  035%=      5-min Rain = 0
KTAS 091816Z 13008KT 27/10 A3024 RMK A01 T02650096  RH  035%=      5-min Rain = 0
KTAS 091817Z 15007KT 27/10 A3024 RMK A01 T02660098  RH  035%=      5-min Rain = 0
KTAS 091818Z 16005KT 27/10 A3024 RMK A01 T02690098  RH  034%=      5-min Rain = 0
KTAS 091819Z 18006G11KT 27/10 A3024 RMK A01 T02670096  RH  034%=      5-min Rain = 0
KTAS 091820Z 19009KT 27/10 A3024 RMK A01 T02660095  RH  034%=      5-min Rain = 0
KTAS 091821Z 18008KT 26/09 A3024 RMK A01 T02640093  RH  034%=      5-min Rain = 0
KTAS 091822Z 15005KT 26/10 A3024 RMK A01 T02600095  RH  035%=      5-min Rain = 0
KTAS 091823Z 14009KT 27/10 A3024 RMK A01 T02660097  RH  035%=      5-min Rain = 0
KTAS 091824Z 14008KT 27/10 A3024 RMK A01 T02670096  RH  034%=      5-min Rain = 0
KTAS 091825Z 13005KT 26/09 A3024 RMK A01 T02630093  RH  034%=      5-min Rain = 0
KTAS 091826Z 14003KT 26/10 A3024 RMK A01 T02600095  RH  035%=      5-min Rain = 0
KTAS 091827Z 17007KT 26/10 A3024 RMK A01 T02600096  RH  035%=      5-min Rain = 0
KTAS 091828Z 16007KT 26/09 A3024 RMK A01 T02640094  RH  034%=      5-min Rain = 0
KTAS 091829Z 14006KT 26/09 A3024 RMK A01 T02630093  RH  034%=      5-min Rain = 0
KTAS 091830Z 18006G11KT 26/09 A3024 RMK A01 T02620094  RH  035%=      5-min Rain = 0
KTAS 091831Z 18008KT 27/10 A3024 RMK A01 T02680096  RH  034%=      5-min Rain = 0
KTAS 091832Z 17007KT 27/09 A3024 RMK A01 T02710092  RH  032%=      5-min Rain = 0
KTAS 091833Z 16005KT 27/09 A3024 RMK A01 T02690094  RH  033%=      5-min Rain = 0
KTAS 091834Z 14006KT 27/09 A3024 RMK A01 T02690094  RH  033%=      5-min Rain = 0
KTAS 091835Z 13007KT 27/09 A3023 RMK A01 T02670092  RH  033%=      5-min Rain = 0
KTAS 091836Z 18005KT 26/09 A3023 RMK A01 T02630094  RH  034%=      5-min Rain = 0
KTAS 091837Z 18006KT 26/10 A3023 RMK A01 T02620096  RH  035%=      5-min Rain = 0
KTAS 091838Z 18007KT 26/10 A3023 RMK A01 T02620098  RH  036%=      5-min Rain = 0
KTAS 091839Z 11007KT 27/10 A3023 RMK A01 T02650097  RH  035%=      5-min Rain = 0
KTAS 091840Z 15007KT 27/10 A3023 RMK A01 T02700100  RH  034%=      5-min Rain = 0
KTAS 091841Z 16005KT 27/10 A3023 RMK A01 T02710101  RH  034%=      5-min Rain = 0
KTAS 091842Z 16010KT 27/10 A3023 RMK A01 T02710099  RH  034%=      5-min Rain = 0
KTAS 091843Z 16007KT 27/10 A3023 RMK A01 T02720097  RH  033%=      5-min Rain = 0
KTAS 091844Z 15006KT 27/10 A3023 RMK A01 T02710095  RH  033%=      5-min Rain = 0
KTAS 091845Z 18006KT 27/09 A3023 RMK A01 T02700094  RH  033%=      5-min Rain = 0
KTAS 091846Z 16004KT 27/09 A3023 RMK A01 T02710093  RH  033%=      5-min Rain = 0
KTAS 091847Z 11006KT 27/10 A3023 RMK A01 T02730095  RH  033%=      5-min Rain = 0
KTAS 091848Z 09007KT 27/10 A3023 RMK A01 T02730097  RH  033%=      5-min Rain = 0
KTAS 091849Z 16006KT 27/10 A3023 RMK A01 T02700096  RH  034%=      5-min Rain = 0
KTAS 091850Z 16007KT 27/09 A3023 RMK A01 T02710092  RH  032%=      5-min Rain = 0
KTAS 091851Z 17006KT 27/09 A3023 RMK A01 T02710093  RH  033%=      5-min Rain = 0
KTAS 091852Z 17005KT 27/09 A3023 RMK A01 T02700092  RH  032%=      5-min Rain = 0
KTAS 091853Z 17008G13KT 27/10 A3023 RMK A01 T02700095  RH  033%=      5-min Rain = 0
KTAS 091854Z 17008KT 27/10 A3023 RMK A01 T02740097  RH  033%=      5-min Rain = 0
KTAS 091855Z 18006KT 27/10 A3023 RMK A01 T02740095  RH  032%=      5-min Rain = 0
KTAS 091856Z 16007KT 27/10 A3023 RMK A01 T02720098  RH  034%=      5-min Rain = 0
KTAS 091857Z 15010KT 28/10 A3023 RMK A01 T02750099  RH  033%=      5-min Rain = 0
KTAS 091858Z 14008KT 28/10 A3023 RMK A01 T02770095  RH  032%=      5-min Rain = 0
KTAS 091859Z 14009KT 27/10 A3023 RMK A01 T02740097  RH  033%=      5-min Rain = 0
KTAS 091900Z 15009KT 27/10 A3023 RMK A01 T02730096  RH  033%=      5-min Rain = 0
KTAS 091901Z 16007KT 27/10 A3022 RMK A01 T02710095  RH  033%=      5-min Rain = 0
KTAS 091902Z 16007KT 27/10 A3022 RMK A01 T02690096  RH  034%=      5-min Rain = 0
KTAS 091903Z 17007KT 27/10 A3022 RMK A01 T02710095  RH  033%=      5-min Rain = 0
KTAS 091904Z 16007KT 27/09 A3022 RMK A01 T02720091  RH  032%=      5-min Rain = 0
KTAS 091905Z 17005KT 27/09 A3022 RMK A01 T02690092  RH  033%=      5-min Rain = 0
KTAS 091906Z 17002KT 27/09 A3022 RMK A01 T02670092  RH  033%=      5-min Rain = 0
KTAS 091907Z 13006KT 27/10 A3022 RMK A01 T02700097  RH  034%=      5-min Rain = 0
KTAS 091908Z 14009KT 28/10 A3022 RMK A01 T02780097  RH  032%=      5-min Rain = 0
KTAS 091909Z 14010KT 28/09 A3022 RMK A01 T02790093  RH  031%=      5-min Rain = 0
KTAS 091910Z 14008KT 28/09 A3022 RMK A01 T02750090  RH  031%=      5-min Rain = 0
KTAS 091911Z 16010KT 27/09 A3022 RMK A01 T02740091  RH  032%=      5-min Rain = 0
KTAS 091912Z 16007KT 27/09 A3022 RMK A01 T02740089  RH  031%=      5-min Rain = 0
KTAS 091913Z 15006KT 27/09 A3022 RMK A01 T02730092  RH  032%=      5-min Rain = 0
KTAS 091914Z 16009KT 28/09 A3022 RMK A01 T02770092  RH  031%=      5-min Rain = 0
KTAS 091915Z 14008KT 28/09 A3022 RMK A01 T02820094  RH  031%=      5-min Rain = 0
KTAS 091916Z 13009KT 28/09 A3022 RMK A01 T02800091  RH  031%=      5-min Rain = 0
KTAS 091917Z 11007KT 28/09 A3022 RMK A01 T02750094  RH  032%=      5-min Rain = 0
KTAS 091918Z 13008KT 28/10 A3022 RMK A01 T02780095  RH  032%=      5-min Rain = 0
KTAS 091919Z 11007KT 28/09 A3022 RMK A01 T02790094  RH  031%=      5-min Rain = 0
KTAS 091920Z 08005KT 28/09 A3022 RMK A01 T02770094  RH  032%=      5-min Rain = 0
KTAS 091921Z 09004KT 28/09 A3022 RMK A01 T02750091  RH  031%=      5-min Rain = 0
KTAS 091922Z 14005KT 28/09 A3022 RMK A01 T02750094  RH  032%=      5-min Rain = 0
KTAS 091923Z 14004KT 28/10 A3022 RMK A01 T02760095  RH  032%=      5-min Rain = 0
KTAS 091924Z 12003KT 28/10 A3022 RMK A01 T02790097  RH  032%=      5-min Rain = 0
KTAS 091925Z 11006KT 28/10 A3022 RMK A01 T02800095  RH  031%=      5-min Rain = 0
KTAS 091926Z 08006KT 28/10 A3021 RMK A01 T02790096  RH  032%=      5-min Rain = 0
KTAS 091927Z 09005KT 28/10 A3021 RMK A01 T02780097  RH  032%=      5-min Rain = 0
KTAS 091928Z 14005KT 28/10 A3022 RMK A01 T02810097  RH  032%=      5-min Rain = 0
KTAS 091929Z 16009KT 28/10 A3022 RMK A01 T02820096  RH  031%=      5-min Rain = 0
KTAS 091930Z 15009KT 28/10 A3022 RMK A01 T02820097  RH  032%=      5-min Rain = 0
KTAS 091931Z 14010KT 28/10 A3022 RMK A01 T02800097  RH  032%=      5-min Rain = 0
KTAS 091932Z 13009KT 28/10 A3022 RMK A01 T02770098  RH  033%=      5-min Rain = 0
KTAS 091933Z 13009KT 28/10 A3022 RMK A01 T02770098  RH  033%=      5-min Rain = 0
KTAS 091934Z 11007KT 28/10 A3021 RMK A01 T02750097  RH  033%=      5-min Rain = 0
KTAS 091935Z 13008KT 27/10 A3021 RMK A01 T02710097  RH  034%=      5-min Rain = 0
KTAS 091936Z 11006KT 27/10 A3021 RMK A01 T02710097  RH  033%=      5-min Rain = 0
KTAS 091937Z 14006KT 27/10 A3021 RMK A01 T02710097  RH  034%=      5-min Rain = 0
KTAS 091938Z 13007KT 27/10 A3021 RMK A01 T02720096  RH  033%=      5-min Rain = 0
KTAS 091939Z 12005KT 27/10 A3021 RMK A01 T02720097  RH  033%=      5-min Rain = 0
KTAS 091940Z 12002KT 27/10 A3021 RMK A01 T02720095  RH  033%=      5-min Rain = 0
KTAS 091941Z 15002KT 27/10 A3021 RMK A01 T02720096  RH  033%=      5-min Rain = 0
KTAS 091942Z 13005KT 27/10 A3021 RMK A01 T02740097  RH  033%=      5-min Rain = 0
KTAS 091943Z 18007KT 27/10 A3021 RMK A01 T02740095  RH  032%=      5-min Rain = 0
KTAS 091944Z 15008KT 28/10 A3021 RMK A01 T02760096  RH  032%=      5-min Rain = 0
KTAS 091945Z 15008KT 28/10 A3021 RMK A01 T02790095  RH  032%=      5-min Rain = 0
KTAS 091946Z 16005KT 28/09 A3021 RMK A01 T02800094  RH  031%=      5-min Rain = 0
KTAS 091947Z 17006KT 28/09 A3021 RMK A01 T02810094  RH  031%=      5-min Rain = 0
KTAS 091948Z 16006KT 28/09 A3021 RMK A01 T02800094  RH  031%=      5-min Rain = 0
KTAS 091949Z 15007KT 28/10 A3021 RMK A01 T02800095  RH  031%=      5-min Rain = 0
KTAS 091950Z 15007KT 28/09 A3021 RMK A01 T02810094  RH  031%=      5-min Rain = 0
KTAS 091951Z 16005KT 28/09 A3021 RMK A01 T02800093  RH  031%=      5-min Rain = 0
KTAS 091952Z 16005KT 28/09 A3021 RMK A01 T02790093  RH  031%=      5-min Rain = 0
KTAS 091953Z 17005KT 28/09 A3021 RMK A01 T02780093  RH  031%=      5-min Rain = 0
KTAS 091954Z 17006KT 28/10 A302 RMK A01 T02780095  RH  032%=      5-min Rain = 0
KTAS 091955Z 14009KT 28/10 A302 RMK A01 T02810098  RH  032%=      5-min Rain = 0
KTAS 091956Z 16009KT 29/10 A302 RMK A01 T02850095  RH  030%=      5-min Rain = 0
KTAS 091957Z 17009KT 29/10 A302 RMK A01 T02860095  RH  030%=      5-min Rain = 0
KTAS 091958Z 15009KT 28/10 A302 RMK A01 T02840095  RH  031%=      5-min Rain = 0
KTAS 091959Z 15009KT 28/10 A302 RMK A01 T02840095  RH  031%=      5-min Rain = 0
KTAS 092000Z 15010KT 28/09 A302 RMK A01 T02840094  RH  031%=      5-min Rain = 0
KTAS 092001Z 14008KT 28/09 A302 RMK A01 T02830093  RH  030%=      5-min Rain = 0
KTAS 092002Z 14006G12KT 28/09 A302 RMK A01 T02830094  RH  031%=      5-min Rain = 0
KTAS 092003Z 16007G12KT 28/09 A302 RMK A01 T02830094  RH  031%=      5-min Rain = 0
KTAS 092004Z 16004KT 28/09 A302 RMK A01 T02810094  RH  031%=      5-min Rain = 0
KTAS 092005Z 12003KT 28/09 A302 RMK A01 T02810094  RH  031%=      5-min Rain = 0
KTAS 092006Z 12007KT 28/10 A302 RMK A01 T02800095  RH  031%=      5-min Rain = 0
KTAS 092007Z 12004KT 28/10 A302 RMK A01 T02810096  RH  031%=      5-min Rain = 0
KTAS 092008Z 17005KT 28/10 A302 RMK A01 T02820097  RH  031%=      5-min Rain = 0
KTAS 092009Z 18007KT 29/10 A302 RMK A01 T02860096  RH  031%=      5-min Rain = 0
KTAS 092010Z 18006KT 28/09 A302 RMK A01 T02840094  RH  030%=      5-min Rain = 0
KTAS 092011Z 18008KT 28/09 A302 RMK A01 T02820093  RH  031%=      5-min Rain = 0
KTAS 092012Z 15009KT 29/09 A302 RMK A01 T02850090  RH  030%=      5-min Rain = 0
KTAS 092013Z 13008KT 28/09 A302 RMK A01 T02840091  RH  030%=      5-min Rain = 0
KTAS 092014Z 17009G14KT 29/09 A3019 RMK A01 T02850094  RH  030%=      5-min Rain = 0
KTAS 092015Z 16010KT 29/09 A3019 RMK A01 T02900091  RH  029%=      5-min Rain = 0
KTAS 092016Z 18008G13KT 29/09 A3019 RMK A01 T02870091  RH  029%=      5-min Rain = 0
KTAS 092017Z 17012KT 29/09 A3019 RMK A01 T02890094  RH  030%=      5-min Rain = 0
KTAS 092018Z 14010KT 29/09 A3019 RMK A01 T02920094  RH  029%=      5-min Rain = 0
KTAS 092019Z 14013KT 29/09 A3019 RMK A01 T02920093  RH  029%=      5-min Rain = 0
KTAS 092020Z 13010KT 29/09 A3019 RMK A01 T02900092  RH  029%=      5-min Rain = 0
KTAS 092021Z 13010KT 29/09 A3019 RMK A01 T02870090  RH  029%=      5-min Rain = 0
KTAS 092022Z 13007KT 28/09 A3019 RMK A01 T02830088  RH  029%=      5-min Rain = 0
KTAS 092023Z 14006KT 28/09 A3019 RMK A01 T02820090  RH  030%=      5-min Rain = 0
KTAS 092024Z 12005KT 28/09 A3019 RMK A01 T02830089  RH  030%=      5-min Rain = 0
KTAS 092025Z 13007KT 28/09 A3019 RMK A01 T02820090  RH  030%=      5-min Rain = 0
KTAS 092026Z 15010KT 28/09 A3019 RMK A01 T02840091  RH  030%=      5-min Rain = 0
KTAS 092027Z 15011KT 29/09 A3019 RMK A01 T02880090  RH  029%=      5-min Rain = 0
KTAS 092028Z 14008KT 29/09 A3019 RMK A01 T02880088  RH  029%=      5-min Rain = 0
KTAS 092029Z 14008KT 29/09 A3019 RMK A01 T02870089  RH  029%=      5-min Rain = 0
KTAS 092030Z 10004G9KT 28/09 A3019 RMK A01 T02840085  RH  029%=      5-min Rain = 0
KTAS 092031Z 17004G10KT 28/09 A3019 RMK A01 T02780088  RH  030%=      5-min Rain = 0
KTAS 092032Z 17009KT 28/09 A3019 RMK A01 T02820088  RH  030%=      5-min Rain = 0
KTAS 092033Z 18008KT 29/09 A3019 RMK A01 T02850087  RH  029%=      5-min Rain = 0
KTAS 092034Z 18007KT 28/09 A3018 RMK A01 T02840087  RH  029%=      5-min Rain = 0
KTAS 092035Z 18008KT 28/09 A3018 RMK A01 T02820088  RH  030%=      5-min Rain = 0
KTAS 092036Z 17003KT 28/09 A3018 RMK A01 T02840087  RH  029%=      5-min Rain = 0
KTAS 092037Z 14003KT 28/09 A3018 RMK A01 T02840088  RH  029%=      5-min Rain = 0
KTAS 092038Z 16006KT 28/09 A3018 RMK A01 T02830089  RH  030%=      5-min Rain = 0
KTAS 092039Z 14011KT 29/09 A3018 RMK A01 T02870090  RH  029%=      5-min Rain = 0
KTAS 092040Z 12007KT 29/09 A3018 RMK A01 T02900089  RH  028%=      5-min Rain = 0
KTAS 092041Z 15006KT 29/09 A3018 RMK A01 T02900089  RH  028%=      5-min Rain = 0
KTAS 092042Z 13006KT 29/09 A3018 RMK A01 T02900086  RH  028%=      5-min Rain = 0
KTAS 092043Z 14006KT 29/09 A3018 RMK A01 T02890087  RH  028%=      5-min Rain = 0
KTAS 092044Z 17009KT 29/09 A3018 RMK A01 T02910087  RH  028%=      5-min Rain = 0
KTAS 092045Z 18011KT 29/09 A3018 RMK A01 T02920086  RH  028%=      5-min Rain = 0
KTAS 092046Z 16009KT 29/08 A3018 RMK A01 T02900084  RH  028%=      5-min Rain = 0
KTAS 092047Z 18010KT 29/09 A3018 RMK A01 T02870087  RH  028%=      5-min Rain = 0
KTAS 092048Z 17009KT 29/08 A3018 RMK A01 T02880084  RH  028%=      5-min Rain = 0
KTAS 092049Z 17009KT 29/09 A3018 RMK A01 T02860085  RH  028%=      5-min Rain = 0
KTAS 092050Z 18009KT 29/09 A3018 RMK A01 T02860087  RH  029%=      5-min Rain = 0
KTAS 092051Z 17007KT 29/09 A3018 RMK A01 T02890087  RH  028%=      5-min Rain = 0
KTAS 092052Z 16009KT 29/09 A3018 RMK A01 T02910087  RH  028%=      5-min Rain = 0
KTAS 092053Z 16008KT 29/08 A3018 RMK A01 T02910084  RH  027%=      5-min Rain = 0
KTAS 092054Z 15005KT 29/08 A3018 RMK A01 T02870083  RH  028%=      5-min Rain = 0
KTAS 092055Z 16006KT 29/09 A3018 RMK A01 T02870087  RH  029%=      5-min Rain = 0
KTAS 092056Z 13009KT 29/09 A3018 RMK A01 T02900086  RH  028%=      5-min Rain = 0
KTAS 092057Z 14006KT 29/08 A3018 RMK A01 T02880082  RH  028%=      5-min Rain = 0
KTAS 092058Z 15005KT 28/08 A3017 RMK A01 T02830083  RH  028%=      5-min Rain = 0
KTAS 092059Z 14006KT 28/09 A3017 RMK A01 T02830085  RH  029%=      5-min Rain = 0
KTAS 092100Z 13008KT 29/08 A3017 RMK A01 T02860084  RH  028%=      5-min Rain = 0
KTAS 092101Z 11008KT 29/08 A3017 RMK A01 T02870084  RH  028%=      5-min Rain = 0
KTAS 092102Z 11007KT 29/09 A3017 RMK A01 T02860087  RH  029%=      5-min Rain = 0
KTAS 092103Z 13010KT 29/09 A3017 RMK A01 T02880087  RH  028%=      5-min Rain = 0
KTAS 092104Z 15009KT 29/09 A3017 RMK A01 T02880085  RH  028%=      5-min Rain = 0
KTAS 092105Z 15009KT 29/09 A3017 RMK A01 T02870085  RH  028%=      5-min Rain = 0
KTAS 092106Z 14008KT 29/09 A3017 RMK A01 T02880085  RH  028%=      5-min Rain = 0
KTAS 092107Z 14008KT 29/09 A3017 RMK A01 T02880086  RH  028%=      5-min Rain = 0
KTAS 092108Z 18006KT 29/09 A3017 RMK A01 T02890085  RH  028%=      5-min Rain = 0
KTAS 092109Z 17005KT 29/08 A3017 RMK A01 T02870083  RH  028%=      5-min Rain = 0
KTAS 092110Z 17004KT 29/08 A3017 RMK A01 T02860084  RH  028%=      5-min Rain = 0
KTAS 092111Z 16004KT 29/09 A3017 RMK A01 T02850085  RH  028%=      5-min Rain = 0
KTAS 092112Z 18003KT 29/09 A3017 RMK A01 T02850085  RH  029%=      5-min Rain = 0
KTAS 092113Z 11004KT 29/09 A3017 RMK A01 T02860087  RH  029%=      5-min Rain = 0
KTAS 092114Z 10003KT 29/09 A3017 RMK A01 T02890087  RH  028%=      5-min Rain = 0
KTAS 092115Z 10006KT 29/09 A3017 RMK A01 T02920088  RH  028%=      5-min Rain = 0
KTAS 092116Z 15009KT 29/09 A3017 RMK A01 T02940088  RH  028%=      5-min Rain = 0
KTAS 092117Z 15007KT 30/09 A3017 RMK A01 T02950089  RH  028%=      5-min Rain = 0
KTAS 092118Z 14009KT 30/09 A3017 RMK A01 T02970088  RH  027%=      5-min Rain = 0
KTAS 092119Z 14007KT 30/09 A3017 RMK A01 T02960086  RH  027%=      5-min Rain = 0
KTAS 092120Z 14007KT 29/09 A3017 RMK A01 T02930085  RH  027%=      5-min Rain = 0
KTAS 092121Z 13008KT 29/09 A3017 RMK A01 T02890085  RH  028%=      5-min Rain = 0
KTAS 092122Z 13007KT 29/09 A3017 RMK A01 T02860085  RH  028%=      5-min Rain = 0
KTAS 092123Z 18006KT 29/09 A3017 RMK A01 T02870085  RH  028%=      5-min Rain = 0
KTAS 092124Z 20004KT 29/09 A3017 RMK A01 T02880085  RH  028%=      5-min Rain = 0
KTAS 092125Z 18006KT 29/09 A3017 RMK A01 T02890086  RH  028%=      5-min Rain = 0
KTAS 092126Z 16009KT 29/09 A3017 RMK A01 T02910087  RH  028%=      5-min Rain = 0
KTAS 092127Z 17007KT 29/09 A3017 RMK A01 T02900085  RH  028%=      5-min Rain = 0
KTAS 092128Z 19004KT 29/09 A3017 RMK A01 T02880085  RH  028%=      5-min Rain = 0
KTAS 092129Z 16005KT 29/09 A3017 RMK A01 T02880086  RH  028%=      5-min Rain = 0
KTAS 092130Z 16003KT 29/09 A3017 RMK A01 T02900087  RH  028%=      5-min Rain = 0
KTAS 092131Z 21003KT 29/09 A3017 RMK A01 T02930088  RH  028%=      5-min Rain = 0
KTAS 092132Z 19002KT 29/09 A3017 RMK A01 T02940086  RH  027%=      5-min Rain = 0
KTAS 092133Z 16007KT 30/09 A3016 RMK A01 T02960089  RH  028%=      5-min Rain = 0
KTAS 092134Z 17009KT 30/09 A3017 RMK A01 T02980086  RH  027%=      5-min Rain = 0
KTAS 092135Z 16009KT 30/09 A3017 RMK A01 T02970090  RH  028%=      5-min Rain = 0
KTAS 092136Z 17008KT 30/09 A3017 RMK A01 T02990091  RH  027%=      5-min Rain = 0
KTAS 092137Z 16010KT 30/09 A3017 RMK A01 T03000086  RH  026%=      5-min Rain = 0
KTAS 092138Z 16009KT 30/08 A3017 RMK A01 T02960082  RH  026%=      5-min Rain = 0
KTAS 092139Z 16008KT 29/08 A3017 RMK A01 T02910083  RH  027%=      5-min Rain = 0
KTAS 092140Z 17009KT 29/09 A3017 RMK A01 T02910086  RH  028%=      5-min Rain = 0
KTAS 092141Z 16009KT 29/09 A3017 RMK A01 T02920086  RH  028%=      5-min Rain = 0
KTAS 092142Z 16010KT 29/09 A3017 RMK A01 T02900085  RH  028%=      5-min Rain = 0
KTAS 092143Z 16010KT 29/08 A3017 RMK A01 T02880083  RH  028%=      5-min Rain = 0
KTAS 092144Z 17007KT 29/09 A3017 RMK A01 T02880085  RH  028%=      5-min Rain = 0
KTAS 092145Z 18007KT 29/08 A3017 RMK A01 T02900082  RH  027%=      5-min Rain = 0
KTAS 092146Z 19004KT 29/08 A3016 RMK A01 T02860081  RH  028%=      5-min Rain = 0
KTAS 092147Z 17002KT 29/08 A3016 RMK A01 T02850082  RH  028%=      5-min Rain = 0
KTAS 092148Z 18004KT 29/08 A3016 RMK A01 T02860083  RH  028%=      5-min Rain = 0
KTAS 092149Z 20005KT 29/08 A3016 RMK A01 T02860084  RH  028%=      5-min Rain = 0
KTAS 092150Z 13004KT 29/09 A3016 RMK A01 T02870086  RH  028%=      5-min Rain = 0
KTAS 092151Z 11006KT 29/09 A3016 RMK A01 T02900086  RH  028%=      5-min Rain = 0
KTAS 092152Z 14004KT 29/09 A3016 RMK A01 T02940088  RH  028%=      5-min Rain = 0
KTAS 092153Z 14007KT 30/09 A3016 RMK A01 T02970086  RH  027%=      5-min Rain = 0
KTAS 092154Z 15009KT 30/09 A3016 RMK A01 T02960087  RH  027%=      5-min Rain = 0
KTAS 092155Z 15010KT 30/08 A3016 RMK A01 T02960083  RH  026%=      5-min Rain = 0
KTAS 092156Z 14008KT 29/08 A3016 RMK A01 T02940083  RH  027%=      5-min Rain = 0
KTAS 092157Z 13009KT 29/08 A3016 RMK A01 T02930084  RH  027%=      5-min Rain = 0
KTAS 092158Z 13008KT 29/09 A3016 RMK A01 T02930087  RH  028%=      5-min Rain = 0
KTAS 092159Z 15006KT 30/09 A3016 RMK A01 T02950087  RH  027%=      5-min Rain = 0
KTAS 092200Z 15007KT 30/09 A3016 RMK A01 T02960089  RH  027%=      5-min Rain = 0
KTAS 092201Z 17007KT 30/09 A3016 RMK A01 T02980088  RH  027%=      5-min Rain = 0
KTAS 092202Z 18008KT 30/09 A3016 RMK A01 T02970086  RH  027%=      5-min Rain = 0
KTAS 092203Z 16006KT 29/09 A3016 RMK A01 T02930086  RH  027%=      5-min Rain = 0
KTAS 092204Z 16004KT 29/09 A3016 RMK A01 T02920085  RH  027%=      5-min Rain = 0
KTAS 092205Z 15005KT 29/09 A3016 RMK A01 T02890085  RH  028%=      5-min Rain = 0
KTAS 092206Z 15004KT 29/09 A3016 RMK A01 T02870085  RH  028%=      5-min Rain = 0
KTAS 092207Z 18005KT 29/09 A3016 RMK A01 T02860085  RH  028%=      5-min Rain = 0
KTAS 092208Z 16005KT 29/08 A3016 RMK A01 T02860084  RH  028%=      5-min Rain = 0
KTAS 092209Z 17006KT 29/09 A3016 RMK A01 T02850087  RH  029%=      5-min Rain = 0
KTAS 092210Z 17007KT 29/09 A3016 RMK A01 T02870089  RH  029%=      5-min Rain = 0
KTAS 092211Z 16007KT 29/09 A3016 RMK A01 T02890090  RH  029%=      5-min Rain = 0
KTAS 092212Z 14005KT 29/09 A3016 RMK A01 T02900087  RH  028%=      5-min Rain = 0
KTAS 092213Z 15008KT 29/09 A3016 RMK A01 T02910093  RH  029%=      5-min Rain = 0
KTAS 092214Z 16011KT 29/09 A3016 RMK A01 T02940090  RH  028%=      5-min Rain = 0
KTAS 092215Z 17008KT 29/09 A3016 RMK A01 T02920087  RH  028%=      5-min Rain = 0
KTAS 092216Z 16008KT 29/09 A3016 RMK A01 T02910090  RH  028%=      5-min Rain = 0
KTAS 092217Z 17009KT 29/09 A3016 RMK A01 T02920088  RH  028%=      5-min Rain = 0
KTAS 092218Z 14006KT 29/09 A3016 RMK A01 T02930089  RH  028%=      5-min Rain = 0
KTAS 092219Z 14005KT 29/09 A3016 RMK A01 T02940087  RH  028%=      5-min Rain = 0
KTAS 092220Z 15006KT 29/09 A3016 RMK A01 T02930088  RH  028%=      5-min Rain = 0
KTAS 092221Z 16005KT 29/09 A3016 RMK A01 T02930087  RH  028%=      5-min Rain = 0
KTAS 092222Z 15005KT 29/09 A3016 RMK A01 T02940087  RH  027%=      5-min Rain = 0
KTAS 092223Z 18004KT 29/09 A3016 RMK A01 T02940087  RH  027%=      5-min Rain = 0
KTAS 092224Z 20005KT 29/09 A3016 RMK A01 T02930086  RH  027%=      5-min Rain = 0
KTAS 092225Z 19006KT 29/09 A3016 RMK A01 T02920085  RH  027%=      5-min Rain = 0
KTAS 092226Z 18005KT 29/08 A3016 RMK A01 T02910084  RH  027%=      5-min Rain = 0
KTAS 092227Z 17007KT 29/08 A3016 RMK A01 T02890084  RH  028%=      5-min Rain = 0
KTAS 092228Z 16005KT 29/09 A3016 RMK A01 T02880087  RH  028%=      5-min Rain = 0
KTAS 092229Z 14006KT 29/09 A3016 RMK A01 T02890085  RH  028%=      5-min Rain = 0
KTAS 092230Z 12008KT 29/08 A3016 RMK A01 T02890084  RH  028%=      5-min Rain = 0
KTAS 092231Z 14009KT 29/09 A3016 RMK A01 T02890085  RH  028%=      5-min Rain = 0
KTAS 092232Z 16008KT 29/08 A3016 RMK A01 T02890084  RH  028%=      5-min Rain = 0
KTAS 092233Z 15006KT 29/09 A3016 RMK A01 T02890087  RH  028%=      5-min Rain = 0
KTAS 092234Z 14006KT 29/09 A3016 RMK A01 T02920088  RH  028%=      5-min Rain = 0
KTAS 092235Z 14006KT 30/09 A3016 RMK A01 T02950087  RH  027%=      5-min Rain = 0
KTAS 092236Z 13005KT 30/09 A3016 RMK A01 T02960085  RH  027%=      5-min Rain = 0
KTAS 092237Z 12006KT 30/08 A3016 RMK A01 T02960084  RH  026%=      5-min Rain = 0
KTAS 092238Z 12005KT 29/08 A3016 RMK A01 T02940082  RH  027%=      5-min Rain = 0
KTAS 092239Z 13004KT 29/08 A3016 RMK A01 T02920084  RH  027%=      5-min Rain = 0
KTAS 092240Z 13006KT 29/09 A3016 RMK A01 T02920085  RH  027%=      5-min Rain = 0
KTAS 092241Z 13005KT 29/08 A3016 RMK A01 T02910084  RH  027%=      5-min Rain = 0
KTAS 092242Z 11005KT 29/09 A3016 RMK A01 T02910086  RH  028%=      5-min Rain = 0
KTAS 092243Z 13004KT 29/09 A3016 RMK A01 T02900086  RH  028%=      5-min Rain = 0
KTAS 092244Z 13005KT 29/09 A3016 RMK A01 T02880086  RH  028%=      5-min Rain = 0
KTAS 092245Z 15006KT 29/09 A3016 RMK A01 T02870085  RH  028%=      5-min Rain = 0
KTAS 092246Z 14004KT 29/09 A3016 RMK A01 T02860085  RH  028%=      5-min Rain = 0
KTAS 092247Z 13003KT 29/09 A3016 RMK A01 T02860089  RH  029%=      5-min Rain = 0
KTAS 092248Z 14004KT 29/09 A3016 RMK A01 T02890092  RH  029%=      5-min Rain = 0
KTAS 092249Z 15005KT 29/09 A3016 RMK A01 T02920089  RH  028%=      5-min Rain = 0
KTAS 092250Z 15005KT 29/09 A3016 RMK A01 T02920089  RH  028%=      5-min Rain = 0
KTAS 092251Z 13006KT 29/08 A3016 RMK A01 T02910084  RH  027%=      5-min Rain = 0
KTAS 092252Z 12006KT 29/09 A3016 RMK A01 T02910085  RH  028%=      5-min Rain = 0
KTAS 092253Z 13009KT 29/08 A3016 RMK A01 T02910083  RH  027%=      5-min Rain = 0
KTAS 092254Z 13008KT 29/08 A3016 RMK A01 T02890081  RH  027%=      5-min Rain = 0
KTAS 092255Z 13007KT 29/08 A3016 RMK A01 T02870082  RH  027%=      5-min Rain = 0
KTAS 092256Z 15007KT 29/08 A3016 RMK A01 T02870079  RH  027%=      5-min Rain = 0
KTAS 092257Z 13007KT 29/08 A3016 RMK A01 T02860082  RH  028%=      5-min Rain = 0
KTAS 092258Z 13007KT 29/09 A3016 RMK A01 T02880085  RH  028%=      5-min Rain = 0
KTAS 092259Z 12008KT 29/08 A3016 RMK A01 T02890082  RH  027%=      5-min Rain = 0
KTAS 092300Z 12006KT 29/08 A3016 RMK A01 T02870082  RH  028%=      5-min Rain = 0
KTAS 092301Z 14007KT 29/08 A3016 RMK A01 T02870082  RH  028%=      5-min Rain = 0
KTAS 092302Z 13006KT 29/08 A3016 RMK A01 T02870084  RH  028%=      5-min Rain = 0
KTAS 092303Z 12003KT 29/08 A3016 RMK A01 T02860081  RH  028%=      5-min Rain = 0
KTAS 092304Z 11002KT 29/08 A3015 RMK A01 T02850081  RH  028%=      5-min Rain = 0
KTAS 092305Z 12006KT 29/08 A3015 RMK A01 T02850082  RH  028%=      5-min Rain = 0
KTAS 092306Z 13008KT 29/08 A3015 RMK A01 T02860082  RH  028%=      5-min Rain = 0
KTAS 092307Z 13009KT 29/08 A3015 RMK A01 T02850082  RH  028%=      5-min Rain = 0
KTAS 092308Z 12007KT 29/08 A3016 RMK A01 T02850080  RH  028%=      5-min Rain = 0
KTAS 092309Z 12008KT 28/08 A3016 RMK A01 T02840081  RH  028%=      5-min Rain = 0
KTAS 092310Z 13006KT 28/08 A3015 RMK A01 T02830084  RH  029%=      5-min Rain = 0
KTAS 092311Z 14006KT 29/09 A3015 RMK A01 T02860086  RH  029%=      5-min Rain = 0
KTAS 092312Z 15007KT 29/09 A3015 RMK A01 T02880088  RH  029%=      5-min Rain = 0
KTAS 092313Z 14008KT 29/09 A3016 RMK A01 T02900086  RH  028%=      5-min Rain = 0
KTAS 092314Z 15007KT 29/09 A3016 RMK A01 T02890086  RH  028%=      5-min Rain = 0
KTAS 092315Z 15007KT 29/08 A3016 RMK A01 T02880083  RH  028%=      5-min Rain = 0
KTAS 092316Z 15007KT 29/09 A3016 RMK A01 T02870085  RH  028%=      5-min Rain = 0
KTAS 092317Z 13006KT 29/08 A3016 RMK A01 T02880084  RH  028%=      5-min Rain = 0
KTAS 092318Z 13007KT 29/08 A3016 RMK A01 T02880083  RH  028%=      5-min Rain = 0
KTAS 092319Z 15005KT 29/09 A3016 RMK A01 T02880085  RH  028%=      5-min Rain = 0
KTAS 092320Z 15005KT 29/09 A3016 RMK A01 T02890086  RH  028%=      5-min Rain = 0
KTAS 092321Z 13008KT 29/08 A3016 RMK A01 T02890084  RH  028%=      5-min Rain = 0
KTAS 092322Z 13007KT 29/08 A3016 RMK A01 T02870081  RH  027%=      5-min Rain = 0
KTAS 092323Z 15006KT 29/08 A3016 RMK A01 T02850083  RH  028%=      5-min Rain = 0
KTAS 092324Z 14005KT 29/09 A3015 RMK A01 T02850087  RH  029%=      5-min Rain = 0
KTAS 092325Z 15006KT 29/09 A3016 RMK A01 T02870085  RH  028%=      5-min Rain = 0
KTAS 092326Z 15007KT 29/08 A3016 RMK A01 T02870084  RH  028%=      5-min Rain = 0
KTAS 092327Z 13006KT 29/09 A3015 RMK A01 T02860085  RH  028%=      5-min Rain = 0
KTAS 092328Z 14005KT 29/09 A3015 RMK A01 T02860087  RH  029%=      5-min Rain = 0
KTAS 092329Z 15007KT 29/09 A3015 RMK A01 T02870085  RH  028%=      5-min Rain = 0
KTAS 092330Z 16007KT 29/08 A3015 RMK A01 T02870084  RH  028%=      5-min Rain = 0
KTAS 092331Z 16007KT 29/09 A3015 RMK A01 T02860086  RH  028%=      5-min Rain = 0
KTAS 092332Z 17005KT 29/08 A3015 RMK A01 T02850083  RH  028%=      5-min Rain = 0
KTAS 092333Z 17006KT 28/08 A3015 RMK A01 T02830083  RH  028%=      5-min Rain = 0
KTAS 092334Z 16006KT 28/08 A3015 RMK A01 T02840084  RH  029%=      5-min Rain = 0
KTAS 092335Z 13007KT 28/08 A3015 RMK A01 T02840084  RH  028%=      5-min Rain = 0
KTAS 092336Z 14008KT 28/09 A3015 RMK A01 T02840085  RH  029%=      5-min Rain = 0
KTAS 092337Z 15008KT 28/08 A3015 RMK A01 T02830081  RH  028%=      5-min Rain = 0
KTAS 092338Z 16008KT 28/08 A3015 RMK A01 T02830083  RH  029%=      5-min Rain = 0
KTAS 092339Z 15008KT 28/08 A3015 RMK A01 T02820084  RH  029%=      5-min Rain = 0
KTAS 092340Z 14008KT 28/08 A3015 RMK A01 T02820082  RH  028%=      5-min Rain = 0
KTAS 092341Z 14005KT 28/08 A3015 RMK A01 T02810083  RH  029%=      5-min Rain = 0
KTAS 092342Z 13005KT 28/08 A3015 RMK A01 T02810084  RH  029%=      5-min Rain = 0
KTAS 092343Z 12005KT 28/08 A3015 RMK A01 T02810083  RH  029%=      5-min Rain = 0
KTAS 092344Z 15006KT 28/08 A3015 RMK A01 T02810082  RH  029%=      5-min Rain = 0
KTAS 092345Z 16005KT 28/08 A3015 RMK A01 T02800081  RH  028%=      5-min Rain = 0
KTAS 092346Z 16005KT 28/08 A3015 RMK A01 T02800084  RH  029%=      5-min Rain = 0
KTAS 092347Z 16006KT 28/08 A3015 RMK A01 T02800083  RH  029%=      5-min Rain = 0
KTAS 092348Z 15005KT 28/08 A3015 RMK A01 T02800083  RH  029%=      5-min Rain = 0
KTAS 092349Z 17007KT 28/09 A3015 RMK A01 T02800086  RH  030%=      5-min Rain = 0
KTAS 092350Z 16007KT 28/09 A3015 RMK A01 T02790088  RH  030%=      5-min Rain = 0
KTAS 092351Z 16006KT 28/09 A3015 RMK A01 T02780089  RH  030%=      5-min Rain = 0
KTAS 092352Z 16007KT 28/09 A3015 RMK A01 T02780089  RH  031%=      5-min Rain = 0
KTAS 092353Z 17009KT 28/09 A3015 RMK A01 T02770086  RH  030%=      5-min Rain = 0
KTAS 092354Z 16008KT 28/08 A3015 RMK A01 T02760083  RH  030%=      5-min Rain = 0
KTAS 092355Z 16006KT 28/09 A3015 RMK A01 T02760085  RH  030%=      5-min Rain = 0
KTAS 092356Z 16007KT 28/09 A3015 RMK A01 T02760085  RH  030%=      5-min Rain = 0
KTAS 092357Z 16006KT 28/09 A3015 RMK A01 T02760086  RH  030%=      5-min Rain = 0
KTAS 092358Z 16007KT 28/09 A3015 RMK A01 T02750089  RH  031%=      5-min Rain = 0
KTAS 092359Z 16007KT 28/09 A3015 RMK A01 T02750088  RH  031%=      5-min Rain = 0
KTAS 100000Z 15006KT 27/09 A3015 RMK A01 T02740089  RH  031%=      5-min Rain = 0
KTAS 100001Z 16006KT 27/09 A3015 RMK A01 T02730089  RH  031%=      5-min Rain = 0
KTAS 100002Z 15005KT 27/09 A3015 RMK A01 T02740091  RH  032%=      5-min Rain = 0
KTAS 100003Z 14005KT 27/09 A3015 RMK A01 T02740090  RH  031%=      5-min Rain = 0
KTAS 100004Z 14007KT 27/09 A3015 RMK A01 T02730087  RH  031%=      5-min Rain = 0
KTAS 100005Z 14006KT 27/08 A3015 RMK A01 T02730083  RH  030%=      5-min Rain = 0
KTAS 100006Z 15005KT 27/09 A3015 RMK A01 T02730085  RH  030%=      5-min Rain = 0
KTAS 100007Z 16006KT 27/09 A3015 RMK A01 T02730086  RH  031%=      5-min Rain = 0
KTAS 100008Z 16006KT 27/09 A3016 RMK A01 T02720087  RH  031%=      5-min Rain = 0
KTAS 100009Z 16006KT 27/09 A3016 RMK A01 T02720087  RH  031%=      5-min Rain = 0
KTAS 100010Z 18006KT 27/09 A3016 RMK A01 T02710089  RH  032%=      5-min Rain = 0
KTAS 100011Z 17008KT 27/08 A3016 RMK A01 T02700083  RH  031%=      5-min Rain = 0
KTAS 100012Z 17006KT 27/08 A3016 RMK A01 T02700084  RH  031%=      5-min Rain = 0
KTAS 100013Z 17006KT 27/09 A3016 RMK A01 T02690086  RH  031%=      5-min Rain = 0
KTAS 100014Z 17006KT 27/09 A3016 RMK A01 T02690088  RH  032%=      5-min Rain = 0
KTAS 100015Z 17006KT 27/09 A3016 RMK A01 T02680089  RH  032%=      5-min Rain = 0
KTAS 100016Z 17006KT 27/09 A3016 RMK A01 T02680089  RH  032%=      5-min Rain = 0
KTAS 100017Z 17006KT 27/09 A3016 RMK A01 T02670089  RH  033%=      5-min Rain = 0
KTAS 100018Z 16006KT 27/09 A3016 RMK A01 T02660090  RH  033%=      5-min Rain = 0
KTAS 100019Z 15006KT 27/09 A3016 RMK A01 T02650090  RH  033%=      5-min Rain = 0
KTAS 100020Z 16005KT 26/09 A3016 RMK A01 T02640091  RH  033%=      5-min Rain = 0
KTAS 100021Z 16005KT 26/09 A3016 RMK A01 T02640093  RH  034%=      5-min Rain = 0
KTAS 100022Z 16005KT 26/10 A3016 RMK A01 T02630095  RH  035%=      5-min Rain = 0
KTAS 100023Z 16005KT 26/10 A3016 RMK A01 T02620096  RH  035%=      5-min Rain = 0
KTAS 100024Z 17005KT 26/10 A3016 RMK A01 T02610097  RH  036%=      5-min Rain = 0
KTAS 100025Z 17006KT 26/10 A3016 RMK A01 T02600096  RH  035%=      5-min Rain = 0
KTAS 100026Z 17006KT 26/10 A3016 RMK A01 T02590095  RH  036%=      5-min Rain = 0
KTAS 100027Z 17005KT 26/09 A3016 RMK A01 T02590094  RH  035%=      5-min Rain = 0
KTAS 100028Z 17006KT 26/09 A3016 RMK A01 T02580094  RH  036%=      5-min Rain = 0
KTAS 100029Z 16005KT 26/09 A3016 RMK A01 T02580092  RH  035%=      5-min Rain = 0
KTAS 100030Z 17006KT 26/09 A3016 RMK A01 T02570092  RH  035%=      5-min Rain = 0
KTAS 100031Z 16006KT 26/09 A3016 RMK A01 T02570092  RH  035%=      5-min Rain = 0
KTAS 100032Z 16007KT 26/09 A3016 RMK A01 T02560092  RH  035%=      5-min Rain = 0
KTAS 100033Z 16006KT 26/09 A3016 RMK A01 T02550093  RH  036%=      5-min Rain = 0
KTAS 100034Z 17006KT 25/10 A3016 RMK A01 T02540095  RH  036%=      5-min Rain = 0
KTAS 100035Z 16006KT 25/10 A3016 RMK A01 T02530095  RH  037%=      5-min Rain = 0
KTAS 100036Z 16006KT 25/10 A3016 RMK A01 T02520096  RH  037%=      5-min Rain = 0
KTAS 100037Z 16006KT 25/10 A3016 RMK A01 T02500096  RH  038%=      5-min Rain = 0
KTAS 100038Z 16006KT 25/10 A3016 RMK A01 T02490096  RH  038%=      5-min Rain = 0
KTAS 100039Z 16006KT 25/10 A3016 RMK A01 T02480095  RH  038%=      5-min Rain = 0
KTAS 100040Z 17006KT 25/10 A3016 RMK A01 T02480095  RH  038%=      5-min Rain = 0
KTAS 100041Z 16005KT 25/10 A3016 RMK A01 T02470095  RH  038%=      5-min Rain = 0
KTAS 100042Z 16006KT 25/10 A3016 RMK A01 T02460096  RH  039%=      5-min Rain = 0
KTAS 100043Z 16006KT 25/10 A3016 RMK A01 T02450097  RH  039%=      5-min Rain = 0
KTAS 100044Z 16005KT 24/10 A3016 RMK A01 T02440097  RH  039%=      5-min Rain = 0
KTAS 100045Z 16006KT 24/10 A3016 RMK A01 T02430097  RH  040%=      5-min Rain = 0
KTAS 100046Z 16006KT 24/10 A3016 RMK A01 T02410097  RH  040%=      5-min Rain = 0
KTAS 100047Z 16005KT 24/10 A3016 RMK A01 T02400097  RH  040%=      5-min Rain = 0
KTAS 100048Z 16005KT 24/10 A3016 RMK A01 T02390097  RH  040%=      5-min Rain = 0
KTAS 100049Z 16006KT 24/10 A3016 RMK A01 T02380097  RH  041%=      5-min Rain = 0
KTAS 100050Z 15006KT 24/10 A3016 RMK A01 T02380097  RH  041%=      5-min Rain = 0
KTAS 100051Z 15005KT 24/10 A3016 RMK A01 T02370097  RH  041%=      5-min Rain = 0
KTAS 100052Z 15006KT 24/10 A3016 RMK A01 T02350097  RH  041%=      5-min Rain = 0
KTAS 100053Z 15006KT 23/10 A3016 RMK A01 T02340097  RH  042%=      5-min Rain = 0
KTAS 100054Z 15006KT 23/10 A3016 RMK A01 T02340097  RH  042%=      5-min Rain = 0
KTAS 100055Z 14006KT 23/10 A3016 RMK A01 T02330097  RH  042%=      5-min Rain = 0
KTAS 100056Z 14006KT 23/10 A3016 RMK A01 T02320097  RH  042%=      5-min Rain = 0
KTAS 100057Z 14006KT 23/10 A3016 RMK A01 T02310097  RH  043%=      5-min Rain = 0
KTAS 100058Z 13006KT 23/10 A3016 RMK A01 T02300097  RH  043%=      5-min Rain = 0
KTAS 100059Z 13006KT 23/10 A3016 RMK A01 T02300095  RH  042%=      5-min Rain = 0
KTAS 100100Z 13006KT 23/10 A3016 RMK A01 T02300095  RH  042%=      5-min Rain = 0
KTAS 100101Z 13006KT 23/10 A3016 RMK A01 T02310095  RH  042%=      5-min Rain = 0
KTAS 100102Z 12005KT 23/09 A3016 RMK A01 T02300094  RH  042%=      5-min Rain = 0
KTAS 100103Z 12005KT 23/09 A3016 RMK A01 T02300093  RH  042%=      5-min Rain = 0
KTAS 100104Z 12005KT 23/09 A3016 RMK A01 T02290093  RH  042%=      5-min Rain = 0
KTAS 100105Z 12005KT 23/09 A3016 RMK A01 T02290092  RH  042%=      5-min Rain = 0
KTAS 100106Z 13005KT 23/09 A3016 RMK A01 T02290091  RH  042%=      5-min Rain = 0
KTAS 100107Z 13006KT 23/09 A3016 RMK A01 T02280090  RH  041%=      5-min Rain = 0
KTAS 100108Z 14007KT 23/09 A3016 RMK A01 T02290089  RH  041%=      5-min Rain = 0
KTAS 100109Z 14005KT 23/09 A3016 RMK A01 T02290088  RH  040%=      5-min Rain = 0
KTAS 100110Z 14006KT 23/09 A3016 RMK A01 T02290088  RH  040%=      5-min Rain = 0
KTAS 100111Z 13006KT 23/09 A3016 RMK A01 T02290088  RH  041%=      5-min Rain = 0
KTAS 100112Z 14006KT 23/09 A3016 RMK A01 T02290088  RH  041%=      5-min Rain = 0
KTAS 100113Z 14006KT 23/09 A3016 RMK A01 T02290088  RH  041%=      5-min Rain = 0
KTAS 100114Z 13006KT 23/09 A3016 RMK A01 T02280088  RH  041%=      5-min Rain = 0
KTAS 100115Z 13005KT 23/09 A3016 RMK A01 T02280088  RH  041%=      5-min Rain = 0
KTAS 100116Z 13005KT 23/09 A3016 RMK A01 T02280088  RH  041%=      5-min Rain = 0
KTAS 100117Z 13006KT 23/09 A3016 RMK A01 T02280088  RH  041%=      5-min Rain = 0
KTAS 100118Z 13005KT 23/09 A3016 RMK A01 T02280088  RH  041%=      5-min Rain = 0
KTAS 100119Z 13005KT 23/09 A3016 RMK A01 T02270088  RH  041%=      5-min Rain = 0
KTAS 100120Z 12005KT 23/09 A3016 RMK A01 T02260088  RH  041%=      5-min Rain = 0
KTAS 100121Z 13005KT 23/09 A3016 RMK A01 T02250089  RH  042%=      5-min Rain = 0
KTAS 100122Z 13005KT 22/09 A3016 RMK A01 T02240089  RH  042%=      5-min Rain = 0
KTAS 100123Z 13005KT 22/09 A3016 RMK A01 T02240089  RH  042%=      5-min Rain = 0
KTAS 100124Z 13005KT 22/09 A3016 RMK A01 T02230088  RH  042%=      5-min Rain = 0
KTAS 100125Z 13005KT 22/09 A3016 RMK A01 T02230088  RH  042%=      5-min Rain = 0
KTAS 100126Z 13005KT 22/09 A3016 RMK A01 T02230088  RH  042%=      5-min Rain = 0
KTAS 100127Z 13005KT 22/09 A3016 RMK A01 T02220088  RH  042%=      5-min Rain = 0
KTAS 100128Z 13005KT 22/09 A3016 RMK A01 T02220088  RH  042%=      5-min Rain = 0
KTAS 100129Z 13005KT 22/09 A3016 RMK A01 T02220088  RH  042%=      5-min Rain = 0
KTAS 100130Z 13005KT 22/09 A3016 RMK A01 T02210088  RH  042%=      5-min Rain = 0
KTAS 100131Z 13005KT 22/09 A3016 RMK A01 T02210088  RH  043%=      5-min Rain = 0
KTAS 100132Z 13004KT 22/09 A3016 RMK A01 T02200088  RH  043%=      5-min Rain = 0
KTAS 100133Z 13004KT 22/09 A3016 RMK A01 T02190088  RH  043%=      5-min Rain = 0
KTAS 100134Z 13004KT 22/09 A3016 RMK A01 T02180088  RH  043%=      5-min Rain = 0
KTAS 100135Z 14004KT 22/09 A3016 RMK A01 T02170088  RH  044%=      5-min Rain = 0
KTAS 100136Z 14004KT 22/09 A3016 RMK A01 T02170088  RH  044%=      5-min Rain = 0
KTAS 100137Z 14005KT 22/09 A3016 RMK A01 T02170088  RH  044%=      5-min Rain = 0
KTAS 100138Z 15005KT 22/09 A3016 RMK A01 T02170088  RH  043%=      5-min Rain = 0
KTAS 100139Z 15005KT 22/09 A3016 RMK A01 T02170089  RH  044%=      5-min Rain = 0
KTAS 100140Z 15004KT 22/09 A3016 RMK A01 T02170089  RH  044%=      5-min Rain = 0
KTAS 100141Z 15004KT 22/09 A3016 RMK A01 T02170089  RH  044%=      5-min Rain = 0
KTAS 100142Z 15004KT 22/09 A3016 RMK A01 T02170089  RH  044%=      5-min Rain = 0
KTAS 100143Z 15005KT 22/09 A3017 RMK A01 T02160089  RH  044%=      5-min Rain = 0
KTAS 100144Z 15005KT 22/09 A3017 RMK A01 T02150089  RH  045%=      5-min Rain = 0
KTAS 100145Z 15005KT 21/09 A3017 RMK A01 T02130089  RH  045%=      5-min Rain = 0
KTAS 100146Z 15005KT 21/09 A3017 RMK A01 T02120090  RH  045%=      5-min Rain = 0
KTAS 100147Z 15005KT 21/09 A3017 RMK A01 T02120089  RH  045%=      5-min Rain = 0
KTAS 100148Z 15005KT 21/09 A3017 RMK A01 T02120089  RH  045%=      5-min Rain = 0
KTAS 100149Z 15005KT 21/09 A3017 RMK A01 T02130088  RH  045%=      5-min Rain = 0
KTAS 100150Z 15006KT 21/09 A3017 RMK A01 T02130088  RH  045%=      5-min Rain = 0
KTAS 100151Z 15006KT 21/09 A3017 RMK A01 T02130088  RH  045%=      5-min Rain = 0
KTAS 100152Z 15006KT 21/09 A3017 RMK A01 T02130087  RH  045%=      5-min Rain = 0
KTAS 100153Z 14006KT 21/09 A3017 RMK A01 T02120087  RH  045%=      5-min Rain = 0
KTAS 100154Z 14006KT 21/09 A3017 RMK A01 T02110086  RH  045%=      5-min Rain = 0
KTAS 100155Z 14006KT 21/09 A3017 RMK A01 T02100086  RH  045%=      5-min Rain = 0
KTAS 100156Z 14006KT 21/09 A3017 RMK A01 T02100086  RH  045%=      5-min Rain = 0
KTAS 100157Z 14006KT 21/09 A3017 RMK A01 T02090085  RH  045%=      5-min Rain = 0
KTAS 100158Z 14006KT 21/09 A3017 RMK A01 T02080085  RH  045%=      5-min Rain = 0
KTAS 100159Z 14006KT 21/09 A3017 RMK A01 T02070085  RH  045%=      5-min Rain = 0
KTAS 100200Z 14006KT 21/09 A3017 RMK A01 T02070085  RH  046%=      5-min Rain = 0
KTAS 100201Z 14006KT 21/09 A3017 RMK A01 T02060085  RH  046%=      5-min Rain = 0
KTAS 100202Z 14005KT 21/09 A3017 RMK A01 T02060086  RH  046%=      5-min Rain = 0
KTAS 100203Z 14005KT 21/09 A3017 RMK A01 T02050086  RH  046%=      5-min Rain = 0
KTAS 100204Z 14006KT 20/09 A3017 RMK A01 T02040086  RH  047%=      5-min Rain = 0
KTAS 100205Z 13006KT 20/09 A3017 RMK A01 T02040086  RH  046%=      5-min Rain = 0
KTAS 100206Z 13005KT 20/09 A3017 RMK A01 T02040086  RH  047%=      5-min Rain = 0
KTAS 100207Z 13005KT 20/09 A3017 RMK A01 T02030086  RH  047%=      5-min Rain = 0
KTAS 100208Z 12005KT 20/09 A3017 RMK A01 T02020087  RH  047%=      5-min Rain = 0
KTAS 100209Z 10004KT 20/09 A3017 RMK A01 T02000087  RH  048%=      5-min Rain = 0
KTAS 100210Z 07005KT 20/09 A3017 RMK A01 T01960085  RH  049%=      5-min Rain = 0
KTAS 100211Z 09006KT 19/08 A3017 RMK A01 T01920084  RH  050%=      5-min Rain = 0
KTAS 100212Z 09006KT 19/08 A3017 RMK A01 T01910084  RH  050%=      5-min Rain = 0
KTAS 100213Z 09006KT 19/08 A3017 RMK A01 T01930083  RH  049%=      5-min Rain = 0
KTAS 100214Z 09006KT 20/08 A3017 RMK A01 T01950083  RH  048%=      5-min Rain = 0
KTAS 100215Z 09006KT 20/08 A3018 RMK A01 T01950083  RH  048%=      5-min Rain = 0
KTAS 100216Z 09005KT 19/08 A3018 RMK A01 T01940083  RH  049%=      5-min Rain = 0
KTAS 100217Z 09006KT 19/08 A3018 RMK A01 T01940083  RH  049%=      5-min Rain = 0
KTAS 100218Z 09007KT 19/08 A3018 RMK A01 T01930083  RH  049%=      5-min Rain = 0
KTAS 100219Z 10006KT 19/08 A3018 RMK A01 T01940083  RH  048%=      5-min Rain = 0
KTAS 100220Z 10006KT 19/08 A3018 RMK A01 T01940083  RH  048%=      5-min Rain = 0
KTAS 100221Z 10006KT 19/08 A3018 RMK A01 T01940083  RH  049%=      5-min Rain = 0
KTAS 100222Z 10006KT 19/08 A3018 RMK A01 T01930083  RH  049%=      5-min Rain = 0
KTAS 100223Z 11006KT 19/08 A3018 RMK A01 T01930083  RH  049%=      5-min Rain = 0
KTAS 100224Z 11006KT 19/08 A3018 RMK A01 T01920083  RH  049%=      5-min Rain = 0
KTAS 100225Z 11006KT 19/08 A3018 RMK A01 T01920083  RH  049%=      5-min Rain = 0
KTAS 100226Z 11007KT 19/08 A3018 RMK A01 T01910082  RH  049%=      5-min Rain = 0
KTAS 100227Z 11007KT 19/08 A3018 RMK A01 T01910082  RH  049%=      5-min Rain = 0
KTAS 100228Z 11007KT 19/08 A3019 RMK A01 T01920082  RH  049%=      5-min Rain = 0
KTAS 100229Z 11007KT 19/08 A3019 RMK A01 T01920082  RH  049%=      5-min Rain = 0
KTAS 100230Z 11007KT 19/08 A3019 RMK A01 T01920083  RH  049%=      5-min Rain = 0
KTAS 100231Z 11007KT 19/08 A3019 RMK A01 T01920083  RH  049%=      5-min Rain = 0
KTAS 100232Z 11006KT 19/08 A3019 RMK A01 T01920083  RH  049%=      5-min Rain = 0
KTAS 100233Z 12006KT 19/08 A3019 RMK A01 T01920083  RH  049%=      5-min Rain = 0
KTAS 100234Z 11006KT 19/08 A3019 RMK A01 T01920083  RH  049%=      5-min Rain = 0
KTAS 100235Z 12005KT 19/08 A3019 RMK A01 T01920083  RH  049%=      5-min Rain = 0
KTAS 100236Z 13005KT 19/08 A3019 RMK A01 T01920083  RH  049%=      5-min Rain = 0
KTAS 100237Z 13006KT 19/08 A3019 RMK A01 T01920083  RH  049%=      5-min Rain = 0
KTAS 100238Z 12006KT 19/08 A3019 RMK A01 T01930083  RH  049%=      5-min Rain = 0
KTAS 100239Z 10006KT 19/08 A3019 RMK A01 T01930083  RH  049%=      5-min Rain = 0
KTAS 100240Z 10007KT 19/08 A3019 RMK A01 T01930083  RH  049%=      5-min Rain = 0
KTAS 100241Z 10007KT 19/08 A3019 RMK A01 T01920083  RH  049%=      5-min Rain = 0
KTAS 100242Z 10007KT 19/08 A3019 RMK A01 T01920083  RH  049%=      5-min Rain = 0
KTAS 100243Z 10007KT 19/08 A3019 RMK A01 T01920083  RH  049%=      5-min Rain = 0
KTAS 100244Z 10007KT 19/08 A3019 RMK A01 T01920084  RH  050%=      5-min Rain = 0
KTAS 100245Z 10008KT 19/08 A3019 RMK A01 T01910084  RH  050%=      5-min Rain = 0
KTAS 100246Z 10008KT 19/08 A3019 RMK A01 T01920084  RH  050%=      5-min Rain = 0
KTAS 100247Z 10008KT 19/08 A3019 RMK A01 T01920084  RH  049%=      5-min Rain = 0
KTAS 100248Z 10008KT 19/08 A3019 RMK A01 T01930084  RH  049%=      5-min Rain = 0
KTAS 100249Z 10008KT 19/08 A3019 RMK A01 T01930084  RH  049%=      5-min Rain = 0
KTAS 100250Z 10008KT 19/08 A3019 RMK A01 T01940084  RH  049%=      5-min Rain = 0
KTAS 100251Z 10008KT 20/08 A3019 RMK A01 T01950084  RH  049%=      5-min Rain = 0
KTAS 100252Z 10008KT 20/08 A3019 RMK A01 T01950084  RH  049%=      5-min Rain = 0
KTAS 100253Z 10008KT 20/08 A3019 RMK A01 T01950084  RH  049%=      5-min Rain = 0
KTAS 100254Z 10008KT 20/08 A3019 RMK A01 T01950084  RH  048%=      5-min Rain = 0
KTAS 100255Z 10008KT 20/08 A3019 RMK A01 T01950084  RH  048%=      5-min Rain = 0
KTAS 100256Z 10007KT 20/08 A3019 RMK A01 T01960083  RH  048%=      5-min Rain = 0
KTAS 100257Z 10008KT 20/08 A3019 RMK A01 T01960083  RH  048%=      5-min Rain = 0
KTAS 100258Z 10007KT 20/08 A3019 RMK A01 T01960083  RH  048%=      5-min Rain = 0
KTAS 100259Z 11007KT 20/08 A3019 RMK A01 T01960083  RH  048%=      5-min Rain = 0
KTAS 100300Z 11008KT 20/08 A3019 RMK A01 T01960083  RH  048%=      5-min Rain = 0
KTAS 100301Z 11007KT 20/08 A3019 RMK A01 T01960083  RH  048%=      5-min Rain = 0
KTAS 100302Z 11007KT 20/08 A3019 RMK A01 T01950083  RH  048%=      5-min Rain = 0
KTAS 100303Z 11007KT 20/08 A3019 RMK A01 T01950083  RH  048%=      5-min Rain = 0
KTAS 100304Z 11007KT 19/08 A3019 RMK A01 T01940083  RH  048%=      5-min Rain = 0
KTAS 100305Z 11007KT 19/08 A3019 RMK A01 T01940083  RH  049%=      5-min Rain = 0
KTAS 100306Z 11007KT 19/08 A3019 RMK A01 T01930083  RH  049%=      5-min Rain = 0
KTAS 100307Z 10007KT 19/08 A3019 RMK A01 T01920083  RH  049%=      5-min Rain = 0
KTAS 100308Z 10007KT 19/08 A3019 RMK A01 T01910083  RH  049%=      5-min Rain = 0
KTAS 100309Z 11007KT 19/08 A3019 RMK A01 T01910083  RH  049%=      5-min Rain = 0
KTAS 100310Z 11007KT 19/08 A3019 RMK A01 T01900082  RH  050%=      5-min Rain = 0
KTAS 100311Z 11007KT 19/08 A3019 RMK A01 T01900082  RH  050%=      5-min Rain = 0
KTAS 100312Z 11006KT 19/08 A3019 RMK A01 T01900082  RH  049%=      5-min Rain = 0
KTAS 100313Z 11007KT 19/08 A3019 RMK A01 T01900082  RH  050%=      5-min Rain = 0
KTAS 100314Z 10007KT 19/08 A3019 RMK A01 T01890083  RH  050%=      5-min Rain = 0
KTAS 100315Z 11007KT 19/08 A3019 RMK A01 T01890083  RH  050%=      5-min Rain = 0
KTAS 100316Z 11007KT 19/08 A3019 RMK A01 T01880083  RH  050%=      5-min Rain = 0
KTAS 100317Z 11006KT 19/08 A3019 RMK A01 T01870082  RH  051%=      5-min Rain = 0
KTAS 100318Z 11006KT 19/08 A3019 RMK A01 T01860083  RH  051%=      5-min Rain = 0
KTAS 100319Z 11006KT 19/08 A3019 RMK A01 T01850083  RH  051%=      5-min Rain = 0
KTAS 100320Z 11006KT 19/08 A3019 RMK A01 T01850082  RH  051%=      5-min Rain = 0
KTAS 100321Z 11006KT 18/08 A3019 RMK A01 T01840083  RH  052%=      5-min Rain = 0
KTAS 100322Z 10007KT 18/08 A3019 RMK A01 T01830083  RH  052%=      5-min Rain = 0
KTAS 100323Z 10006KT 18/08 A3019 RMK A01 T01820083  RH  052%=      5-min Rain = 0
KTAS 100324Z 10007KT 18/08 A3019 RMK A01 T01810083  RH  052%=      5-min Rain = 0
KTAS 100325Z 10007KT 18/08 A3019 RMK A01 T01810083  RH  053%=      5-min Rain = 0
KTAS 100326Z 10006KT 18/08 A3019 RMK A01 T01810083  RH  053%=      5-min Rain = 0
KTAS 100327Z 10006KT 18/08 A3019 RMK A01 T01810083  RH  053%=      5-min Rain = 0
KTAS 100328Z 10006KT 18/08 A3019 RMK A01 T01800083  RH  053%=      5-min Rain = 0
KTAS 100329Z 10006KT 18/08 A3019 RMK A01 T01800083  RH  053%=      5-min Rain = 0
KTAS 100330Z 10006KT 18/08 A3019 RMK A01 T01790083  RH  053%=      5-min Rain = 0
KTAS 100331Z 10006KT 18/08 A302 RMK A01 T01780083  RH  053%=      5-min Rain = 0
KTAS 100332Z 11006KT 18/08 A302 RMK A01 T01780082  RH  054%=      5-min Rain = 0
KTAS 100333Z 11006KT 18/08 A302 RMK A01 T01770082  RH  054%=      5-min Rain = 0
KTAS 100334Z 11005KT 18/08 A302 RMK A01 T01760082  RH  054%=      5-min Rain = 0
KTAS 100335Z 11005KT 18/08 A302 RMK A01 T01760082  RH  054%=      5-min Rain = 0
KTAS 100336Z 11006KT 18/08 A302 RMK A01 T01750082  RH  054%=      5-min Rain = 0
KTAS 100337Z 11006KT 18/08 A302 RMK A01 T01750082  RH  054%=      5-min Rain = 0
KTAS 100338Z 11006KT 18/08 A302 RMK A01 T01750082  RH  054%=      5-min Rain = 0
KTAS 100339Z 11006KT 18/08 A302 RMK A01 T01750082  RH  055%=      5-min Rain = 0
KTAS 100340Z 11006KT 17/08 A302 RMK A01 T01740082  RH  055%=      5-min Rain = 0
KTAS 100341Z 11005KT 17/08 A302 RMK A01 T01730082  RH  055%=      5-min Rain = 0
KTAS 100342Z 11006KT 17/08 A302 RMK A01 T01720082  RH  055%=      5-min Rain = 0
KTAS 100343Z 11006KT 17/08 A302 RMK A01 T01720082  RH  055%=      5-min Rain = 0
KTAS 100344Z 11006KT 17/08 A302 RMK A01 T01710082  RH  056%=      5-min Rain = 0
KTAS 100345Z 11005KT 17/08 A302 RMK A01 T01710082  RH  056%=      5-min Rain = 0
KTAS 100346Z 11006KT 17/08 A302 RMK A01 T01700082  RH  056%=      5-min Rain = 0
KTAS 100347Z 11006KT 17/08 A302 RMK A01 T01700082  RH  056%=      5-min Rain = 0
KTAS 100348Z 11006KT 17/08 A302 RMK A01 T01700082  RH  056%=      5-min Rain = 0
KTAS 100349Z 11006KT 17/08 A302 RMK A01 T01700082  RH  056%=      5-min Rain = 0
KTAS 100350Z 11006KT 17/08 A302 RMK A01 T01700082  RH  056%=      5-min Rain = 0
KTAS 100351Z 11006KT 17/08 A302 RMK A01 T01700082  RH  056%=      5-min Rain = 0
KTAS 100352Z 11006KT 17/08 A302 RMK A01 T01710082  RH  056%=      5-min Rain = 0
KTAS 100353Z 11006KT 17/08 A302 RMK A01 T01710082  RH  056%=      5-min Rain = 0
KTAS 100354Z 11006KT 17/08 A302 RMK A01 T01710082  RH  056%=      5-min Rain = 0
KTAS 100355Z 11006KT 17/08 A302 RMK A01 T01710082  RH  056%=      5-min Rain = 0
KTAS 100356Z 11006KT 17/08 A302 RMK A01 T01710082  RH  056%=      5-min Rain = 0
KTAS 100357Z 11005KT 17/08 A302 RMK A01 T01710082  RH  056%=      5-min Rain = 0
KTAS 100358Z 12006KT 17/08 A302 RMK A01 T01700081  RH  056%=      5-min Rain = 0
KTAS 100359Z 12006KT 17/08 A302 RMK A01 T01710081  RH  056%=      5-min Rain = 0
KTAS 100400Z 12006KT 17/08 A302 RMK A01 T01710082  RH  056%=      5-min Rain = 0
KTAS 100401Z 12006KT 17/08 A302 RMK A01 T01710082  RH  056%=      5-min Rain = 0
KTAS 100402Z 12006KT 17/08 A302 RMK A01 T01710082  RH  056%=      5-min Rain = 0
KTAS 100403Z 12006KT 17/08 A302 RMK A01 T01710082  RH  056%=      5-min Rain = 0
KTAS 100404Z 12006KT 17/08 A302 RMK A01 T01710082  RH  056%=      5-min Rain = 0
KTAS 100405Z 12006KT 17/08 A302 RMK A01 T01710082  RH  056%=      5-min Rain = 0
KTAS 100406Z 12006KT 17/08 A302 RMK A01 T01710082  RH  056%=      5-min Rain = 0
KTAS 100407Z 12006KT 17/08 A302 RMK A01 T01710081  RH  055%=      5-min Rain = 0
KTAS 100408Z 12006KT 17/08 A302 RMK A01 T01710081  RH  056%=      5-min Rain = 0
KTAS 100409Z 13006KT 17/08 A302 RMK A01 T01710081  RH  056%=      5-min Rain = 0
KTAS 100410Z 13006KT 17/08 A302 RMK A01 T01710082  RH  056%=      5-min Rain = 0
KTAS 100411Z 13006KT 17/08 A302 RMK A01 T01710082  RH  056%=      5-min Rain = 0
KTAS 100412Z 13006KT 17/08 A302 RMK A01 T01700082  RH  056%=      5-min Rain = 0
KTAS 100413Z 13006KT 17/08 A302 RMK A01 T01700082  RH  056%=      5-min Rain = 0
KTAS 100414Z 13006KT 17/08 A302 RMK A01 T01700083  RH  056%=      5-min Rain = 0
KTAS 100415Z 13006KT 17/08 A3021 RMK A01 T01700083  RH  057%=      5-min Rain = 0
KTAS 100416Z 13006KT 17/08 A3021 RMK A01 T01700083  RH  057%=      5-min Rain = 0
KTAS 100417Z 13006KT 17/08 A3021 RMK A01 T01690083  RH  057%=      5-min Rain = 0
KTAS 100418Z 13006KT 17/08 A3021 RMK A01 T01690083  RH  057%=      5-min Rain = 0
KTAS 100419Z 13006KT 17/08 A3021 RMK A01 T01690084  RH  057%=      5-min Rain = 0
KTAS 100420Z 13006KT 17/08 A3021 RMK A01 T01690084  RH  057%=      5-min Rain = 0
KTAS 100421Z 13006KT 17/08 A3021 RMK A01 T01690084  RH  057%=      5-min Rain = 0
KTAS 100422Z 13006KT 17/08 A3021 RMK A01 T01690084  RH  057%=      5-min Rain = 0
KTAS 100423Z 13005KT 17/08 A3021 RMK A01 T01690084  RH  057%=      5-min Rain = 0
KTAS 100424Z 13006KT 17/08 A3021 RMK A01 T01690084  RH  057%=      5-min Rain = 0
KTAS 100425Z 13006KT 17/08 A3021 RMK A01 T01690084  RH  057%=      5-min Rain = 0
KTAS 100426Z 13006KT 17/08 A3021 RMK A01 T01690084  RH  057%=      5-min Rain = 0
KTAS 100427Z 13006KT 17/08 A3021 RMK A01 T01690083  RH  057%=      5-min Rain = 0
KTAS 100428Z 13005KT 17/08 A3021 RMK A01 T01690083  RH  057%=      5-min Rain = 0
KTAS 100429Z 13006KT 17/08 A3021 RMK A01 T01690083  RH  057%=      5-min Rain = 0
KTAS 100430Z 13006KT 17/08 A3021 RMK A01 T01690082  RH  057%=      5-min Rain = 0
KTAS 100431Z 13006KT 17/08 A3021 RMK A01 T01690082  RH  057%=      5-min Rain = 0
KTAS 100432Z 13006KT 17/08 A3021 RMK A01 T01690081  RH  056%=      5-min Rain = 0
KTAS 100433Z 13006KT 17/08 A3021 RMK A01 T01690081  RH  056%=      5-min Rain = 0
KTAS 100434Z 13007KT 17/08 A3021 RMK A01 T01690081  RH  056%=      5-min Rain = 0
KTAS 100435Z 13007KT 17/08 A3021 RMK A01 T01700081  RH  056%=      5-min Rain = 0
KTAS 100436Z 13007KT 17/08 A3021 RMK A01 T01700080  RH  056%=      5-min Rain = 0
KTAS 100437Z 13007KT 17/08 A3021 RMK A01 T01690080  RH  056%=      5-min Rain = 0
KTAS 100438Z 13006KT 17/08 A3021 RMK A01 T01690080  RH  056%=      5-min Rain = 0
KTAS 100439Z 13006KT 17/08 A3021 RMK A01 T01690080  RH  056%=      5-min Rain = 0
KTAS 100440Z 13007KT 17/08 A3021 RMK A01 T01690080  RH  056%=      5-min Rain = 0
KTAS 100441Z 13006KT 17/08 A3021 RMK A01 T01690080  RH  056%=      5-min Rain = 0
KTAS 100442Z 13006KT 17/08 A3021 RMK A01 T01690080  RH  056%=      5-min Rain = 0
KTAS 100443Z 13006KT 17/08 A3021 RMK A01 T01690080  RH  056%=      5-min Rain = 0
KTAS 100444Z 13006KT 17/08 A3021 RMK A01 T01700080  RH  056%=      5-min Rain = 0
KTAS 100445Z 13006KT 17/08 A3021 RMK A01 T01700080  RH  056%=      5-min Rain = 0
KTAS 100446Z 13006KT 17/08 A3021 RMK A01 T01700080  RH  056%=      5-min Rain = 0
KTAS 100447Z 13006KT 17/08 A3021 RMK A01 T01700080  RH  055%=      5-min Rain = 0
KTAS 100448Z 13006KT 17/08 A3021 RMK A01 T01700080  RH  055%=      5-min Rain = 0
KTAS 100449Z 13006KT 17/08 A3021 RMK A01 T01700080  RH  055%=      5-min Rain = 0
KTAS 100450Z 13005KT 17/08 A3021 RMK A01 T01700080  RH  055%=      5-min Rain = 0
KTAS 100451Z 13005KT 17/08 A3021 RMK A01 T01700080  RH  055%=      5-min Rain = 0
KTAS 100452Z 13005KT 17/08 A3021 RMK A01 T01700080  RH  056%=      5-min Rain = 0
KTAS 100453Z 13005KT 17/08 A3021 RMK A01 T01690080  RH  056%=      5-min Rain = 0
KTAS 100454Z 13005KT 17/08 A3021 RMK A01 T01690080  RH  056%=      5-min Rain = 0
KTAS 100455Z 12005KT 17/08 A3021 RMK A01 T01680080  RH  056%=      5-min Rain = 0
KTAS 100456Z 12005KT 17/08 A3021 RMK A01 T01680080  RH  056%=      5-min Rain = 0
KTAS 100457Z 12005KT 17/08 A3021 RMK A01 T01680080  RH  056%=      5-min Rain = 0
KTAS 100458Z 13005KT 17/08 A3021 RMK A01 T01670080  RH  056%=      5-min Rain = 0
KTAS 100459Z 13006KT 17/08 A3021 RMK A01 T01670080  RH  056%=      5-min Rain = 0

Page generated in 0.0825 seconds.